UAE229 OMDB-KSEA

Flight info

Callsign UAE229
Flight time 14h 42m
Altitude 31000
Route ANVIX L223 TARDI N629 IVAKU G216 ALPOR DCT PI B505 PG G325 KALAT J115 QT DCT BIXIR DCT KADLA J134 ZB G325 REGET/N0498F320 N644 LEMOD B362 LBA A299 POGON/K0909F320 Y927 AKALI L985 UZLOR L162 URUSU N984 GITAM/K0900F340 N984 RULEN T822 ALOPU/K0898F330 T793 URIRA/K0904F340 T793 SONIB T533 AGATA/K0907F360 DCT 80N030E/N0489F360 82N020E/M083F360 86N000E 87N020W 87N040W DCT OVBES/N0491F360 DCT 85N100W 80N114W 75N121W/N0483F370 70N122W 65N123W/N0475F390 60N124W 55N124W DCT YVR DCT ROESH MARNR8
Aircraft B77L/H-SDE1E2E3FGHIJ2J3J4J5M1RWXY/LB1D1

Departure

Time 2026-04-26 04:39
Airport Dubai International Airport (OMDB)

Arrival

Time 2026-04-26 19:21
Airport Seattle–Tacoma International Airport (KSEA)
Time Latitude Longitude Altitude Speed Heading
2026-04-26 04:11 25.24209 55.37589 25 ft 0 kts 249°
2026-04-26 04:26 25.24215 55.37607 31 ft 4 kts 251°
2026-04-26 04:26 25.24223 55.37635 31 ft 4 kts 255°
2026-04-26 04:26 25.24230 55.37664 25 ft 4 kts 258°
2026-04-26 04:26 25.24234 55.37693 30 ft 4 kts 263°
2026-04-26 04:27 25.24237 55.37723 27 ft 4 kts 268°
2026-04-26 04:27 25.24236 55.37752 28 ft 4 kts 279°
2026-04-26 04:27 25.24230 55.37777 31 ft 1 kts 302°
2026-04-26 04:27 25.24229 55.37777 25 ft 0 kts 302°
2026-04-26 04:30 25.24230 55.37776 25 ft 1 kts 302°
2026-04-26 04:31 25.24242 55.37754 30 ft 6 kts 303°
2026-04-26 04:31 25.24285 55.37696 28 ft 13 kts 317°
2026-04-26 04:31 25.24328 55.37615 29 ft 13 kts 291°
2026-04-26 04:31 25.24401 55.37537 30 ft 16 kts 330°
2026-04-26 04:32 25.24504 55.37462 30 ft 18 kts 317°
2026-04-26 04:32 25.24578 55.37342 29 ft 20 kts 302°
2026-04-26 04:32 25.24657 55.37204 31 ft 22 kts 302°
2026-04-26 04:32 25.24741 55.37054 29 ft 24 kts 302°
2026-04-26 04:33 25.24831 55.36890 30 ft 26 kts 297°
2026-04-26 04:33 25.24883 55.36701 29 ft 26 kts 291°
2026-04-26 04:33 25.24964 55.36537 30 ft 23 kts 302°
2026-04-26 04:33 25.25045 55.36395 28 ft 21 kts 302°
2026-04-26 04:34 25.25113 55.36274 29 ft 16 kts 301°
2026-04-26 04:34 25.25167 55.36175 28 ft 14 kts 302°
2026-04-26 04:34 25.25213 55.36095 29 ft 11 kts 301°
2026-04-26 04:34 25.25251 55.36027 27 ft 10 kts 301°
2026-04-26 04:35 25.25289 55.35959 29 ft 11 kts 302°
2026-04-26 04:35 25.25326 55.35895 31 ft 9 kts 302°
2026-04-26 04:35 25.25360 55.35836 25 ft 9 kts 301°
2026-04-26 04:35 25.25390 55.35779 25 ft 8 kts 301°
2026-04-26 04:36 25.25423 55.35737 28 ft 7 kts 331°
2026-04-26 04:36 25.25473 55.35745 27 ft 8 kts 29°
2026-04-26 04:36 25.25532 55.35786 28 ft 11 kts 32°
2026-04-26 04:36 25.25595 55.35849 28 ft 13 kts 76°
2026-04-26 04:37 25.25562 55.35936 30 ft 6 kts 123°
2026-04-26 04:37 25.25560 55.35939 26 ft 0 kts 122°
2026-04-26 04:37 25.25546 55.35963 30 ft 16 kts 122°
2026-04-26 04:38 25.25352 55.36312 29 ft 91 kts 121°
2026-04-26 04:38 25.24896 55.37132 28 ft 158 kts 121°
2026-04-26 04:38 25.24219 55.38348 48 ft 208 kts 122°
2026-04-26 04:38 25.23460 55.39723 513 ft 208 kts 122°
2026-04-26 04:39 25.22694 55.41105 976 ft 214 kts 121°
2026-04-26 04:39 25.21901 55.42508 1386 ft 223 kts 121°
2026-04-26 04:39 25.21058 55.43975 1813 ft 228 kts 121°
2026-04-26 04:39 25.20200 55.45461 2264 ft 230 kts 121°
2026-04-26 04:40 25.19350 55.46974 2696 ft 232 kts 120°
2026-04-26 04:40 25.18510 55.48506 3133 ft 233 kts 120°
2026-04-26 04:40 25.17662 55.50039 3562 ft 236 kts 120°
2026-04-26 04:40 25.16802 55.51610 3938 ft 241 kts 119°
2026-04-26 04:41 25.15938 55.53216 4390 ft 245 kts 120°
2026-04-26 04:41 25.15041 55.54849 4798 ft 253 kts 120°
2026-04-26 04:41 25.14126 55.56564 5125 ft 265 kts 120°
2026-04-26 04:41 25.13119 55.58334 5433 ft 277 kts 124°
2026-04-26 04:42 25.11973 55.60033 6091 ft 275 kts 130°
2026-04-26 04:42 25.10696 55.61627 6608 ft 280 kts 133°
2026-04-26 04:42 25.09381 55.63216 7017 ft 289 kts 133°
2026-04-26 04:42 25.08023 55.64891 7525 ft 293 kts 133°
2026-04-26 04:43 25.06612 55.66553 7958 ft 301 kts 135°
2026-04-26 04:43 25.05124 55.68217 8472 ft 306 kts 136°
2026-04-26 04:43 25.04123 55.69323 8863 ft 308 kts 137°
2026-04-26 04:43 25.02598 55.71004 9476 ft 311 kts 137°
2026-04-26 04:44 25.01063 55.72695 10058 ft 313 kts 137°
2026-04-26 04:44 24.99504 55.74413 10442 ft 324 kts 137°
2026-04-26 04:44 24.97859 55.76225 10590 ft 344 kts 137°
2026-04-26 04:44 24.95541 55.78779 10792 ft 369 kts 136°
2026-04-26 04:45 24.94274 55.80073 10855 ft 374 kts 144°
2026-04-26 04:45 24.91954 55.81418 11019 ft 380 kts 162°
2026-04-26 04:45 24.89437 55.82437 11402 ft 389 kts 160°
2026-04-26 04:45 24.86925 55.83583 12030 ft 392 kts 158°
2026-04-26 04:46 24.84497 55.84923 12656 ft 391 kts 146°
2026-04-26 04:46 24.82586 55.87077 13167 ft 396 kts 126°
2026-04-26 04:46 24.81038 55.89596 13580 ft 400 kts 126°
2026-04-26 04:46 24.79391 55.92085 14073 ft 404 kts 128°
2026-04-26 04:47 24.77663 55.94528 14625 ft 404 kts 133°
2026-04-26 04:47 24.75683 55.96686 15034 ft 408 kts 140°
2026-04-26 04:47 24.73503 55.98778 15531 ft 412 kts 140°
2026-04-26 04:47 24.71377 56.00860 16030 ft 416 kts 139°
2026-04-26 04:48 24.67084 56.05246 17006 ft 424 kts 139°
2026-04-26 04:48 24.64921 56.07469 17513 ft 427 kts 139°
2026-04-26 04:48 24.62736 56.09708 18100 ft 428 kts 139°
2026-04-26 04:49 24.60544 56.11950 18505 ft 433 kts 139°
2026-04-26 04:49 24.58333 56.14220 18897 ft 437 kts 139°
2026-04-26 04:49 24.56192 56.16556 19323 ft 441 kts 134°
2026-04-26 04:49 24.54177 56.19117 19729 ft 444 kts 133°
2026-04-26 04:50 24.52175 56.21716 20141 ft 447 kts 133°
2026-04-26 04:50 24.50156 56.24330 20552 ft 450 kts 133°
2026-04-26 04:50 24.48115 56.26957 20966 ft 454 kts 133°
2026-04-26 04:50 24.46049 56.29602 21371 ft 456 kts 134°
2026-04-26 04:51 24.43973 56.32246 21799 ft 458 kts 134°
2026-04-26 04:51 24.41886 56.34897 22218 ft 460 kts 134°
2026-04-26 04:51 24.39803 56.37539 22546 ft 464 kts 134°
2026-04-26 04:51 24.37681 56.40231 22891 ft 468 kts 134°
2026-04-26 04:52 24.35539 56.42950 23249 ft 471 kts 134°
2026-04-26 04:52 24.33384 56.45683 23597 ft 474 kts 134°
2026-04-26 04:52 24.31220 56.48427 23911 ft 476 kts 134°
2026-04-26 04:52 24.29092 56.51226 24236 ft 480 kts 130°
2026-04-26 04:53 24.27138 56.54157 24549 ft 483 kts 128°
2026-04-26 04:53 24.25145 56.57198 24847 ft 486 kts 128°
2026-04-26 04:53 24.23189 56.60181 25166 ft 489 kts 128°
2026-04-26 04:53 24.21197 56.63207 25491 ft 491 kts 129°
2026-04-26 04:54 24.19190 56.66242 25820 ft 493 kts 129°
2026-04-26 04:54 24.17170 56.69283 26157 ft 495 kts 129°
2026-04-26 04:54 24.15138 56.72338 26486 ft 497 kts 129°
2026-04-26 04:54 24.13092 56.75410 26795 ft 499 kts 129°
2026-04-26 04:55 24.11039 56.78491 27104 ft 501 kts 129°
2026-04-26 04:55 24.08979 56.81584 27411 ft 504 kts 129°
2026-04-26 04:55 24.06911 56.84686 27714 ft 506 kts 129°
2026-04-26 04:55 24.04856 56.87766 28006 ft 507 kts 129°
2026-04-26 04:56 24.02772 56.90884 28302 ft 509 kts 129°
2026-04-26 04:56 24.00667 56.94020 28598 ft 511 kts 129°
2026-04-26 04:56 23.98558 56.97153 28846 ft 513 kts 129°
2026-04-26 04:56 23.96437 57.00302 29124 ft 515 kts 129°
2026-04-26 04:57 23.94308 57.03464 29377 ft 517 kts 129°
2026-04-26 04:57 23.92175 57.06632 29622 ft 518 kts 129°
2026-04-26 04:57 23.90028 57.09819 29858 ft 520 kts 129°
2026-04-26 04:57 23.87903 57.12972 29915 ft 523 kts 128°
2026-04-26 04:58 23.83598 57.19377 29904 ft 521 kts 128°
2026-04-26 04:58 23.79317 57.25744 29931 ft 518 kts 128°
2026-04-26 04:59 23.75047 57.32081 29917 ft 517 kts 128°
2026-04-26 04:59 23.70756 57.38402 29922 ft 517 kts 129°
2026-04-26 05:00 23.66307 57.44531 29922 ft 518 kts 131°
2026-04-26 05:00 23.61791 57.50669 29927 ft 518 kts 130°
2026-04-26 05:01 23.57301 57.56842 29947 ft 519 kts 130°
2026-04-26 05:01 23.52822 57.63014 29934 ft 517 kts 129°
2026-04-26 05:02 23.50913 57.66278 29930 ft 519 kts 115°
2026-04-26 05:02 23.49879 57.70051 29963 ft 522 kts 99°
2026-04-26 05:02 23.49733 57.74012 29948 ft 524 kts 84°
2026-04-26 05:02 23.50387 57.77898 29961 ft 521 kts 77°
2026-04-26 05:03 23.51940 57.85644 29936 ft 525 kts 78°
2026-04-26 05:03 23.53374 57.93415 29915 ft 528 kts 79°
2026-04-26 05:04 23.54763 58.01291 29907 ft 530 kts 79°
2026-04-26 05:04 23.56149 58.09189 29888 ft 530 kts 79°
2026-04-26 05:05 23.57537 58.17084 29852 ft 528 kts 79°
2026-04-26 05:05 23.58917 58.24943 29851 ft 526 kts 78°
2026-04-26 05:06 23.60254 58.32726 29857 ft 525 kts 79°
2026-04-26 05:06 23.61563 58.40554 29856 ft 523 kts 79°
2026-04-26 05:07 23.62860 58.48343 29873 ft 521 kts 78°
2026-04-26 05:07 23.64158 58.56130 29869 ft 521 kts 78°
2026-04-26 05:08 23.65456 58.63917 29871 ft 522 kts 78°
2026-04-26 05:08 23.66745 58.71684 29866 ft 523 kts 78°
2026-04-26 05:09 23.68037 58.79495 29867 ft 524 kts 78°
2026-04-26 05:09 23.69330 58.87334 29870 ft 525 kts 78°
2026-04-26 05:10 23.70620 58.95177 29869 ft 525 kts 78°
2026-04-26 05:10 23.71906 59.03026 29869 ft 525 kts 78°
2026-04-26 05:11 23.73180 59.10835 29875 ft 525 kts 79°
2026-04-26 05:11 23.74456 59.18682 29883 ft 525 kts 79°
2026-04-26 05:12 23.75729 59.26540 29881 ft 524 kts 79°
2026-04-26 05:12 23.76990 59.34343 29883 ft 524 kts 79°
2026-04-26 05:13 23.78250 59.42176 29880 ft 523 kts 79°
2026-04-26 05:13 23.79506 59.49999 29881 ft 523 kts 79°
2026-04-26 05:14 23.80770 59.57805 29879 ft 522 kts 79°
2026-04-26 05:14 23.82044 59.65619 29879 ft 522 kts 78°
2026-04-26 05:15 23.83308 59.73431 29882 ft 522 kts 78°
2026-04-26 05:15 23.84561 59.81209 29879 ft 523 kts 78°
2026-04-26 05:16 23.85804 59.89053 29878 ft 523 kts 78°
2026-04-26 05:16 23.87032 59.96882 29880 ft 523 kts 78°
2026-04-26 05:17 23.88258 60.04727 29879 ft 523 kts 78°
2026-04-26 05:17 23.89473 60.12506 29877 ft 523 kts 78°
2026-04-26 05:18 23.90692 60.20340 29874 ft 522 kts 79°
2026-04-26 05:18 23.91905 60.28159 29872 ft 521 kts 79°
2026-04-26 05:19 23.93111 60.35965 29869 ft 520 kts 79°
2026-04-26 05:19 23.94312 60.43761 29871 ft 519 kts 79°
2026-04-26 05:20 23.95501 60.51507 29870 ft 520 kts 79°
2026-04-26 05:20 23.96693 60.59298 29873 ft 520 kts 79°
2026-04-26 05:21 23.97885 60.67122 29872 ft 521 kts 79°
2026-04-26 05:21 23.99069 60.74914 29872 ft 522 kts 79°
2026-04-26 05:22 24.00254 60.82748 29874 ft 521 kts 80°
2026-04-26 05:22 24.01433 60.90566 29868 ft 520 kts 80°
2026-04-26 05:23 24.02607 60.98382 29870 ft 519 kts 80°
2026-04-26 05:23 24.03766 61.06124 29875 ft 518 kts 80°
2026-04-26 05:24 24.04925 61.13894 29872 ft 517 kts 80°
2026-04-26 05:24 24.06079 61.21658 29868 ft 516 kts 80°
2026-04-26 05:25 24.07333 61.29370 29860 ft 515 kts 74°
2026-04-26 05:25 24.09919 61.36654 29876 ft 512 kts 62°
2026-04-26 05:26 24.13731 61.43220 29874 ft 511 kts 54°
2026-04-26 05:26 24.17729 61.49606 29869 ft 512 kts 54°
2026-04-26 05:27 24.21720 61.56063 29871 ft 512 kts 55°
2026-04-26 05:27 24.25689 61.62561 29868 ft 513 kts 55°
2026-04-26 05:28 24.29649 61.69075 29868 ft 513 kts 55°
2026-04-26 05:28 24.33607 61.75593 29874 ft 513 kts 55°
2026-04-26 05:29 24.37568 61.82118 29868 ft 514 kts 55°
2026-04-26 05:29 24.41515 61.88628 29869 ft 515 kts 55°
2026-04-26 05:30 24.45484 61.95183 29873 ft 515 kts 56°
2026-04-26 05:30 24.49452 62.01744 29869 ft 515 kts 56°
2026-04-26 05:31 24.53408 62.08297 29869 ft 514 kts 56°
2026-04-26 05:31 24.57338 62.14814 29871 ft 513 kts 56°
2026-04-26 05:32 24.61495 62.21151 29855 ft 508 kts 41°
2026-04-26 05:32 24.63342 62.22733 29861 ft 505 kts 29°
2026-04-26 05:32 24.66520 62.24320 29876 ft 502 kts 15°
2026-04-26 05:33 24.73369 62.25526 29883 ft 498 kts
2026-04-26 05:33 24.80256 62.26524 29868 ft 499 kts
2026-04-26 05:34 24.87131 62.27589 29867 ft 498 kts
2026-04-26 05:34 24.93940 62.28676 29868 ft 497 kts
2026-04-26 05:35 25.00791 62.29775 29869 ft 496 kts
2026-04-26 05:35 25.07607 62.30868 29867 ft 494 kts
2026-04-26 05:36 25.14393 62.31956 29864 ft 492 kts
2026-04-26 05:36 25.21169 62.33042 29862 ft 490 kts
2026-04-26 05:37 25.27875 62.34119 29866 ft 490 kts
2026-04-26 05:37 25.34632 62.35206 29869 ft 491 kts
2026-04-26 05:38 25.41421 62.36297 29868 ft 494 kts
2026-04-26 05:38 25.48262 62.37397 29869 ft 496 kts
2026-04-26 05:39 25.55069 62.38495 29869 ft 497 kts
2026-04-26 05:39 25.61931 62.39603 29865 ft 498 kts
2026-04-26 05:40 25.68798 62.40714 29865 ft 498 kts
2026-04-26 05:40 25.75652 62.41825 29866 ft 497 kts
2026-04-26 05:41 25.82448 62.42925 29868 ft 496 kts
2026-04-26 05:41 25.89275 62.44032 29857 ft 497 kts
2026-04-26 05:42 25.96148 62.45148 29877 ft 499 kts
2026-04-26 05:42 26.03045 62.46269 29877 ft 502 kts
2026-04-26 05:43 26.09973 62.47397 29882 ft 504 kts
2026-04-26 05:43 26.16926 62.48531 29885 ft 506 kts
2026-04-26 05:44 26.23863 62.49663 29881 ft 507 kts
2026-04-26 05:44 26.30862 62.50807 29892 ft 508 kts
2026-04-26 05:45 26.37880 62.51954 29892 ft 508 kts
2026-04-26 05:45 26.44884 62.53099 29920 ft 507 kts
2026-04-26 05:46 26.51812 62.54236 29912 ft 505 kts
2026-04-26 05:46 26.58766 62.55380 29920 ft 503 kts
2026-04-26 05:47 26.65693 62.56519 29925 ft 502 kts
2026-04-26 05:47 26.72602 62.57656 29932 ft 502 kts
2026-04-26 05:48 26.79536 62.58798 29928 ft 504 kts
2026-04-26 05:48 26.86441 62.59937 29927 ft 505 kts
2026-04-26 05:49 26.96898 62.61665 29939 ft 506 kts
2026-04-26 05:50 27.03883 62.62820 29947 ft 507 kts
2026-04-26 05:50 27.10836 62.63973 29945 ft 508 kts
2026-04-26 05:51 27.17828 62.65134 29948 ft 508 kts
2026-04-26 05:51 27.24836 62.66298 29953 ft 508 kts
2026-04-26 05:52 27.31838 62.67463 29929 ft 508 kts
2026-04-26 05:52 27.38843 62.68628 29926 ft 509 kts
2026-04-26 05:53 27.45858 62.69799 29921 ft 510 kts
2026-04-26 05:53 27.52833 62.70964 29945 ft 510 kts
2026-04-26 05:54 27.59864 62.72139 29920 ft 511 kts
2026-04-26 05:54 27.66917 62.73320 29914 ft 513 kts
2026-04-26 05:55 27.73984 62.74504 29918 ft 514 kts
2026-04-26 05:55 27.81065 62.75693 29907 ft 514 kts
2026-04-26 05:56 27.88167 62.76887 29884 ft 516 kts
2026-04-26 05:56 27.95236 62.78077 29886 ft 517 kts
2026-04-26 05:57 28.02360 62.79277 29883 ft 517 kts
2026-04-26 05:57 28.09493 62.80481 29892 ft 517 kts
2026-04-26 05:58 28.16618 62.81685 29875 ft 518 kts
2026-04-26 05:58 28.23696 62.82883 29879 ft 517 kts
2026-04-26 05:59 28.30810 62.84089 29872 ft 516 kts
2026-04-26 05:59 28.37921 62.85296 29873 ft 515 kts
2026-04-26 06:00 28.45016 62.86501 29872 ft 515 kts
2026-04-26 06:00 28.52099 62.87706 29877 ft 514 kts
2026-04-26 06:01 28.59142 62.88905 29870 ft 514 kts
2026-04-26 06:01 28.66226 62.90113 29877 ft 514 kts
2026-04-26 06:02 28.73310 62.91323 29871 ft 515 kts
2026-04-26 06:02 28.80406 62.92537 29878 ft 515 kts
2026-04-26 06:03 28.87449 62.93744 29896 ft 515 kts
2026-04-26 06:03 28.94531 62.94959 29904 ft 514 kts
2026-04-26 06:04 29.01608 62.96175 29910 ft 513 kts
2026-04-26 06:04 29.08674 62.97390 29925 ft 512 kts
2026-04-26 06:05 29.15720 62.98604 29920 ft 511 kts
2026-04-26 06:05 29.22767 62.99818 29936 ft 513 kts
2026-04-26 06:06 29.29858 63.01042 29949 ft 516 kts
2026-04-26 06:06 29.36937 63.02266 29945 ft 518 kts
2026-04-26 06:07 29.44084 63.03504 29952 ft 520 kts
2026-04-26 06:07 29.51254 63.04748 29950 ft 520 kts
2026-04-26 06:08 29.58409 63.05992 29945 ft 519 kts
2026-04-26 06:08 29.65544 63.07234 29935 ft 517 kts
2026-04-26 06:09 29.72602 63.08464 29937 ft 515 kts
2026-04-26 06:09 29.79702 63.09701 29928 ft 515 kts
2026-04-26 06:10 29.86802 63.10941 29921 ft 516 kts
2026-04-26 06:10 29.93911 63.12185 29908 ft 517 kts
2026-04-26 06:11 30.00994 63.13426 29916 ft 518 kts
2026-04-26 06:11 30.08154 63.14682 29901 ft 520 kts
2026-04-26 06:12 30.15331 63.15943 29895 ft 522 kts
2026-04-26 06:12 30.22521 63.17208 29902 ft 523 kts
2026-04-26 06:13 30.29712 63.18475 29897 ft 523 kts
2026-04-26 06:13 30.36859 63.19738 29899 ft 521 kts
2026-04-26 06:14 30.44018 63.21004 29899 ft 519 kts
2026-04-26 06:14 30.51158 63.22268 29916 ft 518 kts
2026-04-26 06:15 30.58266 63.23529 29916 ft 515 kts
2026-04-26 06:15 30.65346 63.24785 29909 ft 513 kts
2026-04-26 06:16 30.72400 63.26039 29909 ft 512 kts
2026-04-26 06:16 30.79396 63.27284 29937 ft 512 kts
2026-04-26 06:17 30.86454 63.28542 29924 ft 513 kts
2026-04-26 06:17 30.93525 63.29805 29922 ft 514 kts
2026-04-26 06:18 31.00633 63.31076 29921 ft 516 kts
2026-04-26 06:18 31.06536 63.32134 29921 ft 517 kts
2026-04-26 06:19 31.14810 63.33618 29929 ft 517 kts
2026-04-26 06:19 31.20727 63.34681 29925 ft 518 kts
2026-04-26 06:20 31.27853 63.35963 29932 ft 517 kts
2026-04-26 06:20 31.34969 63.37246 29932 ft 517 kts
2026-04-26 06:21 31.42085 63.38530 29936 ft 517 kts
2026-04-26 06:21 31.49206 63.39817 29933 ft 516 kts
2026-04-26 06:22 31.56313 63.41103 29965 ft 517 kts
2026-04-26 06:22 31.63430 63.42393 29949 ft 517 kts
2026-04-26 06:23 31.70544 63.43685 29952 ft 517 kts
2026-04-26 06:23 31.77623 63.44973 29952 ft 517 kts
2026-04-26 06:24 31.84745 63.46270 29966 ft 518 kts
2026-04-26 06:24 31.91884 63.47571 29966 ft 519 kts
2026-04-26 06:25 31.99023 63.48876 29966 ft 519 kts
2026-04-26 06:25 32.06166 63.50184 29974 ft 519 kts
2026-04-26 06:26 32.13316 63.51494 29996 ft 520 kts
2026-04-26 06:26 32.20477 63.52808 29999 ft 520 kts
2026-04-26 06:27 32.27602 63.54119 30017 ft 521 kts
2026-04-26 06:27 32.34763 63.55438 30052 ft 520 kts
2026-04-26 06:28 32.41912 63.56756 30039 ft 520 kts
2026-04-26 06:28 32.49055 63.58076 30058 ft 519 kts
2026-04-26 06:29 32.56200 63.59399 30075 ft 519 kts
2026-04-26 06:29 32.63346 63.60725 30113 ft 520 kts
2026-04-26 06:30 32.70455 63.62042 30116 ft 520 kts
2026-04-26 06:30 32.77619 63.63374 30139 ft 520 kts
2026-04-26 06:31 32.84776 63.64706 30164 ft 521 kts
2026-04-26 06:31 32.91947 63.66045 30152 ft 523 kts
2026-04-26 06:32 32.99164 63.67394 30157 ft 525 kts
2026-04-26 06:32 33.02779 63.68071 30464 ft 525 kts
2026-04-26 06:32 33.06378 63.68746 30949 ft 521 kts
2026-04-26 06:32 33.09942 63.69415 31468 ft 517 kts
2026-04-26 06:33 33.13488 63.70081 31919 ft 514 kts
2026-04-26 06:33 33.16987 63.70737 32224 ft 514 kts
2026-04-26 06:33 33.20544 63.71403 32159 ft 517 kts
2026-04-26 06:34 33.27638 63.72737 32167 ft 514 kts
2026-04-26 06:34 33.34674 63.74063 32219 ft 512 kts
2026-04-26 06:35 33.41717 63.75392 32196 ft 511 kts
2026-04-26 06:35 33.48687 63.76711 32189 ft 509 kts
2026-04-26 06:36 33.55687 63.78035 32206 ft 509 kts
2026-04-26 06:36 33.62701 63.79366 32212 ft 509 kts
2026-04-26 06:37 33.69715 63.80697 32231 ft 510 kts
2026-04-26 06:37 33.76749 63.82034 32252 ft 511 kts
2026-04-26 06:38 33.83786 63.83375 32283 ft 512 kts
2026-04-26 06:38 33.90769 63.84710 32259 ft 511 kts
2026-04-26 06:39 33.97780 63.86052 32258 ft 508 kts
2026-04-26 06:39 34.04762 63.87390 32254 ft 506 kts
2026-04-26 06:40 34.11710 63.88722 32271 ft 505 kts
2026-04-26 06:40 34.18607 63.90048 32269 ft 504 kts
2026-04-26 06:41 34.25527 63.91380 32275 ft 503 kts
2026-04-26 06:41 34.32432 63.92710 32307 ft 503 kts
2026-04-26 06:42 34.39368 63.94048 32297 ft 505 kts
2026-04-26 06:42 34.46323 63.95393 32279 ft 507 kts
2026-04-26 06:43 34.53299 63.96743 32296 ft 508 kts
2026-04-26 06:43 34.60301 63.98103 32292 ft 510 kts
2026-04-26 06:44 34.67290 63.99464 32292 ft 512 kts
2026-04-26 06:44 34.74320 64.00835 32298 ft 512 kts
2026-04-26 06:45 34.81362 64.02209 32330 ft 512 kts
2026-04-26 06:45 34.88411 64.03586 32304 ft 512 kts
2026-04-26 06:46 34.95443 64.04963 32306 ft 511 kts
2026-04-26 06:46 35.02432 64.06334 32307 ft 511 kts
2026-04-26 06:47 35.09474 64.07717 32298 ft 512 kts
2026-04-26 06:47 35.16507 64.09101 32304 ft 512 kts
2026-04-26 06:48 35.23554 64.10491 32288 ft 513 kts
2026-04-26 06:48 35.30602 64.11886 32314 ft 513 kts
2026-04-26 06:49 35.37616 64.13269 32291 ft 513 kts
2026-04-26 06:49 35.44674 64.14670 32288 ft 513 kts
2026-04-26 06:50 35.51726 64.16072 32268 ft 513 kts
2026-04-26 06:50 35.58743 64.17468 32274 ft 513 kts
2026-04-26 06:51 35.65790 64.18873 32266 ft 513 kts
2026-04-26 06:51 35.76358 64.20984 32254 ft 512 kts
2026-04-26 06:52 35.83392 64.22394 32255 ft 511 kts
2026-04-26 06:52 35.90380 64.23794 32245 ft 511 kts
2026-04-26 06:53 35.97402 64.25205 32232 ft 512 kts
2026-04-26 06:53 36.04433 64.26621 32227 ft 511 kts
2026-04-26 06:54 36.11466 64.28028 32213 ft 510 kts
2026-04-26 06:54 36.18486 64.28388 32208 ft 500 kts 351°
2026-04-26 06:55 36.25266 64.27260 32223 ft 492 kts 342°
2026-04-26 06:55 36.32011 64.25639 32194 ft 493 kts 342°
2026-04-26 06:56 36.38774 64.24032 32192 ft 495 kts 342°
2026-04-26 06:56 36.45513 64.22467 32222 ft 496 kts 342°
2026-04-26 06:57 36.52316 64.20898 32200 ft 497 kts 342°
2026-04-26 06:57 36.59134 64.19324 32187 ft 498 kts 342°
2026-04-26 06:58 36.65958 64.17745 32198 ft 498 kts 342°
2026-04-26 06:58 36.72730 64.16173 32187 ft 497 kts 342°
2026-04-26 06:59 36.79537 64.14589 32170 ft 497 kts 342°
2026-04-26 06:59 36.86332 64.13006 32169 ft 496 kts 342°
2026-04-26 07:00 36.93119 64.11421 32161 ft 496 kts 342°
2026-04-26 07:00 36.99915 64.09832 32166 ft 496 kts 342°
2026-04-26 07:01 37.06655 64.08253 32159 ft 496 kts 342°
2026-04-26 07:01 37.13445 64.06660 32162 ft 495 kts 342°
2026-04-26 07:02 37.20230 64.05064 32154 ft 495 kts 342°
2026-04-26 07:02 37.27002 64.03470 32154 ft 495 kts 342°
2026-04-26 07:03 37.33735 64.01881 32164 ft 495 kts 342°
2026-04-26 07:03 37.40500 64.00217 32152 ft 494 kts 341°
2026-04-26 07:04 37.47215 63.98396 32165 ft 493 kts 340°
2026-04-26 07:04 37.53938 63.96553 32173 ft 494 kts 341°
2026-04-26 07:05 37.60621 63.94741 32163 ft 494 kts 341°
2026-04-26 07:05 37.67349 63.92929 32162 ft 494 kts 341°
2026-04-26 07:06 37.72955 63.91418 32155 ft 494 kts 341°
2026-04-26 07:06 37.79684 63.89601 32158 ft 494 kts 341°
2026-04-26 07:07 37.86413 63.87779 32155 ft 494 kts 341°
2026-04-26 07:07 37.93138 63.85953 32168 ft 493 kts 342°
2026-04-26 07:08 37.99812 63.84139 32158 ft 493 kts 342°
2026-04-26 07:08 38.06524 63.82312 32156 ft 492 kts 342°
2026-04-26 07:09 38.13220 63.80486 32158 ft 492 kts 342°
2026-04-26 07:09 38.19915 63.78655 32157 ft 491 kts 342°
2026-04-26 07:11 38.36584 63.74083 32164 ft 491 kts 343°
2026-04-26 07:11 38.43260 63.72249 32159 ft 490 kts 343°
2026-04-26 07:12 38.49932 63.70408 32169 ft 490 kts 343°
2026-04-26 07:12 38.56610 63.68562 32159 ft 490 kts 343°
2026-04-26 07:13 38.63235 63.66730 32161 ft 490 kts 343°
2026-04-26 07:13 38.69907 63.64880 32173 ft 491 kts 343°
2026-04-26 07:14 38.76600 63.63022 32168 ft 492 kts 343°
2026-04-26 07:14 38.83266 63.61168 32176 ft 493 kts 343°
2026-04-26 07:15 38.89870 63.58925 32179 ft 487 kts 334°
2026-04-26 07:15 38.95894 63.55037 32183 ft 479 kts 322°
2026-04-26 07:16 39.01315 63.50152 32194 ft 478 kts 320°
2026-04-26 07:16 39.06750 63.45202 32197 ft 479 kts 320°
2026-04-26 07:17 39.12214 63.40268 32177 ft 479 kts 321°
2026-04-26 07:17 39.17689 63.35345 32185 ft 479 kts 321°
2026-04-26 07:18 39.23129 63.30450 32191 ft 480 kts 320°
2026-04-26 07:18 39.28600 63.25515 32184 ft 480 kts 320°
2026-04-26 07:19 39.34074 63.20566 32195 ft 480 kts 320°
2026-04-26 07:19 39.39544 63.15611 32207 ft 479 kts 320°
2026-04-26 07:20 39.45000 63.10659 32201 ft 478 kts 321°
2026-04-26 07:20 39.50444 63.05708 32186 ft 478 kts 321°
2026-04-26 07:21 39.55862 63.00771 32211 ft 478 kts 321°
2026-04-26 07:21 39.61313 62.95794 32196 ft 478 kts 320°
2026-04-26 07:22 39.66715 62.90853 32194 ft 478 kts 320°
2026-04-26 07:22 39.72148 62.85873 32224 ft 477 kts 320°
2026-04-26 07:23 39.77578 62.80888 32209 ft 477 kts 321°
2026-04-26 07:23 39.83169 62.76208 32202 ft 481 kts 329°
2026-04-26 07:24 39.89420 62.73002 32204 ft 487 kts 341°
2026-04-26 07:24 39.96027 62.70976 32209 ft 488 kts 343°
2026-04-26 07:25 40.02615 62.69032 32204 ft 488 kts 343°
2026-04-26 07:25 40.09236 62.67026 32213 ft 488 kts 342°
2026-04-26 07:26 40.15846 62.64985 32208 ft 488 kts 342°
2026-04-26 07:26 40.22464 62.62933 32207 ft 488 kts 342°
2026-04-26 07:27 40.29076 62.60881 32214 ft 488 kts 342°
2026-04-26 07:27 40.35694 62.58824 32205 ft 488 kts 342°
2026-04-26 07:28 40.42263 62.56778 32209 ft 488 kts 342°
2026-04-26 07:28 40.48867 62.54718 32212 ft 488 kts 342°
2026-04-26 07:29 40.55472 62.52653 32209 ft 487 kts 342°
2026-04-26 07:29 40.62073 62.50586 32225 ft 487 kts 342°
2026-04-26 07:30 40.68660 62.48499 32215 ft 486 kts 341°
2026-04-26 07:30 40.75231 62.46363 32219 ft 485 kts 341°
2026-04-26 07:31 40.81751 62.44264 32227 ft 485 kts 341°
2026-04-26 07:31 40.88330 62.42181 32217 ft 486 kts 341°
2026-04-26 07:32 40.94907 62.40092 32218 ft 486 kts 341°
2026-04-26 07:32 41.01480 62.37994 32228 ft 486 kts 341°
2026-04-26 07:33 41.08067 62.35887 32221 ft 487 kts 341°
2026-04-26 07:33 41.14667 62.33774 32222 ft 487 kts 341°
2026-04-26 07:34 41.21225 62.31670 32225 ft 488 kts 341°
2026-04-26 07:34 41.27836 62.29545 32220 ft 488 kts 341°
2026-04-26 07:35 41.34433 62.27421 32242 ft 488 kts 341°
2026-04-26 07:35 41.41036 62.25289 32226 ft 488 kts 341°
2026-04-26 07:36 41.47634 62.23155 32224 ft 487 kts 341°
2026-04-26 07:36 41.54172 62.21037 32238 ft 486 kts 340°
2026-04-26 07:37 41.60741 62.18903 32230 ft 485 kts 340°
2026-04-26 07:37 41.67309 62.16764 32223 ft 485 kts 340°
2026-04-26 07:38 41.73862 62.14627 32227 ft 484 kts 340°
2026-04-26 07:38 41.80403 62.12489 32228 ft 484 kts 340°
2026-04-26 07:39 41.86915 62.10356 32249 ft 484 kts 340°
2026-04-26 07:39 41.93476 62.08203 32236 ft 485 kts 340°
2026-04-26 07:40 42.00040 62.06038 32231 ft 485 kts 340°
2026-04-26 07:40 42.06604 62.03863 32242 ft 486 kts 340°
2026-04-26 07:41 42.13127 62.01697 32238 ft 486 kts 340°
2026-04-26 07:41 42.19710 61.99510 32230 ft 486 kts 340°
2026-04-26 07:42 42.26289 61.97319 32227 ft 486 kts 340°
2026-04-26 07:42 42.32861 61.95126 32234 ft 486 kts 340°
2026-04-26 07:43 42.39385 61.92944 32249 ft 485 kts 339°
2026-04-26 07:43 42.45943 61.90746 32234 ft 485 kts 339°
2026-04-26 07:44 42.52489 61.88547 32238 ft 484 kts 339°
2026-04-26 07:44 42.59032 61.86345 32268 ft 484 kts 339°
2026-04-26 07:45 42.65585 61.84134 32244 ft 485 kts 339°
2026-04-26 07:45 42.72137 61.81918 32238 ft 485 kts 339°
2026-04-26 07:46 42.78682 61.79700 32252 ft 485 kts 339°
2026-04-26 07:46 42.85220 61.77481 32241 ft 484 kts 338°
2026-04-26 07:47 42.91756 61.75256 32238 ft 483 kts 338°
2026-04-26 07:47 42.98241 61.73045 32237 ft 483 kts 338°
2026-04-26 07:48 43.04767 61.70814 32237 ft 482 kts 338°
2026-04-26 07:48 43.11274 61.68586 32252 ft 481 kts 338°
2026-04-26 07:49 43.17778 61.66352 32250 ft 481 kts 338°
2026-04-26 07:49 43.24274 61.64116 32243 ft 481 kts 338°
2026-04-26 07:50 43.33978 61.60768 32252 ft 481 kts 338°
2026-04-26 07:50 43.40481 61.58518 32236 ft 482 kts 338°
2026-04-26 07:51 43.46993 61.56260 32253 ft 482 kts 338°
2026-04-26 07:51 43.53512 61.53995 32241 ft 483 kts 338°
2026-04-26 07:52 43.59994 61.51738 32243 ft 483 kts 338°
2026-04-26 07:52 43.66513 61.49463 32249 ft 483 kts 338°
2026-04-26 07:53 43.73043 61.47177 32244 ft 484 kts 338°
2026-04-26 07:53 43.79581 61.44885 32245 ft 485 kts 338°
2026-04-26 07:54 43.86090 61.42598 32239 ft 485 kts 338°
2026-04-26 07:54 43.91586 61.40663 32241 ft 486 kts 338°
2026-04-26 07:55 43.99205 61.37975 32245 ft 486 kts 338°
2026-04-26 07:55 44.04656 61.36048 32236 ft 486 kts 338°
2026-04-26 07:56 44.11249 61.33850 32231 ft 491 kts 343°
2026-04-26 07:56 44.18135 61.33180 32244 ft 502 kts 355°
2026-04-26 07:57 44.25131 61.34047 32247 ft 506 kts 359°
2026-04-26 07:57 44.32134 61.35106 32245 ft 506 kts 360°
2026-04-26 07:58 44.39095 61.36108 32236 ft 505 kts 359°
2026-04-26 07:58 44.46098 61.37074 32235 ft 505 kts 359°
2026-04-26 07:59 44.53097 61.38031 32242 ft 505 kts 359°
2026-04-26 07:59 44.60055 61.38990 32234 ft 505 kts 359°
2026-04-26 08:00 44.67054 61.39959 32233 ft 505 kts 359°
2026-04-26 08:00 44.74043 61.40929 32258 ft 505 kts 359°
2026-04-26 08:01 44.81056 61.41906 32238 ft 506 kts 359°
2026-04-26 08:01 44.88063 61.42882 32230 ft 506 kts 359°
2026-04-26 08:02 44.95039 61.43150 32258 ft 499 kts 352°
2026-04-26 08:02 45.01997 61.42953 32233 ft 500 kts 352°
2026-04-26 08:03 45.08906 61.42775 32225 ft 500 kts 352°
2026-04-26 08:03 45.15882 61.42643 32227 ft 501 kts 352°
2026-04-26 08:04 45.22860 61.42530 32227 ft 501 kts 352°
2026-04-26 08:04 45.29842 61.42416 32222 ft 501 kts 352°
2026-04-26 08:05 45.36781 61.42300 32223 ft 501 kts 352°
2026-04-26 08:05 45.43759 61.42182 32222 ft 501 kts 353°
2026-04-26 08:06 45.50726 61.42064 32218 ft 500 kts 353°
2026-04-26 08:06 45.57667 61.41946 32218 ft 499 kts 353°
2026-04-26 08:07 45.64614 61.41827 32214 ft 498 kts 353°
2026-04-26 08:07 45.71510 61.41709 32217 ft 498 kts 352°
2026-04-26 08:08 45.78453 61.41590 32218 ft 499 kts 352°
2026-04-26 08:08 45.85395 61.41472 32236 ft 500 kts 353°
2026-04-26 08:09 45.92356 61.41352 32218 ft 500 kts 353°
2026-04-26 08:09 45.99332 61.41625 32206 ft 504 kts 359°
2026-04-26 08:10 46.06323 61.42654 32245 ft 504 kts
2026-04-26 08:10 46.13263 61.43737 32233 ft 503 kts
2026-04-26 08:11 46.20219 61.44748 32209 ft 501 kts 360°
2026-04-26 08:11 46.27167 61.45719 32212 ft 500 kts 360°
2026-04-26 08:12 46.34097 61.46685 32203 ft 500 kts 360°
2026-04-26 08:12 46.41026 61.47658 32208 ft 499 kts 360°
2026-04-26 08:13 46.47943 61.48635 32211 ft 499 kts 360°
2026-04-26 08:13 46.54822 61.49609 32223 ft 500 kts 359°
2026-04-26 08:14 46.61755 61.50593 32209 ft 501 kts 359°
2026-04-26 08:14 46.68709 61.51584 32195 ft 501 kts 359°
2026-04-26 08:15 46.75656 61.52576 32200 ft 501 kts 359°
2026-04-26 08:15 46.82513 61.52334 32201 ft 486 kts 343°
2026-04-26 08:16 46.88841 61.49573 32192 ft 472 kts 330°
2026-04-26 08:16 46.94878 61.45752 32192 ft 472 kts 330°
2026-04-26 08:17 47.00936 61.41943 32195 ft 474 kts 330°
2026-04-26 08:17 47.06966 61.38198 32200 ft 474 kts 330°
2026-04-26 08:18 47.13043 61.34439 32183 ft 474 kts 330°
2026-04-26 08:18 47.19114 61.30677 32205 ft 473 kts 330°
2026-04-26 08:19 47.25167 61.26914 32185 ft 472 kts 330°
2026-04-26 08:19 47.31214 61.23144 32180 ft 471 kts 330°
2026-04-26 08:20 47.37237 61.19379 32210 ft 469 kts 330°
2026-04-26 08:20 47.43224 61.15626 32182 ft 469 kts 330°
2026-04-26 08:21 47.49231 61.11853 32180 ft 468 kts 330°
2026-04-26 08:21 47.55233 61.08073 32177 ft 468 kts 330°
2026-04-26 08:22 47.61199 61.04306 32182 ft 468 kts 330°
2026-04-26 08:22 47.67194 61.00511 32178 ft 468 kts 330°
2026-04-26 08:23 47.73187 60.96709 32175 ft 468 kts 330°
2026-04-26 08:23 47.79181 60.92896 32179 ft 468 kts 330°
2026-04-26 08:24 47.85162 60.89082 32176 ft 468 kts 330°
2026-04-26 08:24 47.91109 60.85280 32182 ft 468 kts 330°
2026-04-26 08:25 47.97097 60.81442 32169 ft 468 kts 330°
2026-04-26 08:25 48.03092 60.77590 32173 ft 469 kts 330°
2026-04-26 08:26 48.09081 60.73734 32164 ft 469 kts 330°
2026-04-26 08:26 48.15074 60.69864 32166 ft 469 kts 330°
2026-04-26 08:27 48.21060 60.65986 32179 ft 469 kts 330°
2026-04-26 08:27 48.27042 60.62100 32173 ft 468 kts 330°
2026-04-26 08:28 48.33015 60.58211 32168 ft 468 kts 330°
2026-04-26 08:28 48.38986 60.54314 32167 ft 467 kts 330°
2026-04-26 08:29 48.44917 60.50433 32172 ft 467 kts 329°
2026-04-26 08:29 48.50887 60.46516 32164 ft 467 kts 329°
2026-04-26 08:30 48.56861 60.42586 32149 ft 467 kts 329°
2026-04-26 08:30 48.62819 60.38658 32167 ft 467 kts 329°
2026-04-26 08:31 48.68782 60.34715 32156 ft 468 kts 329°
2026-04-26 08:31 48.74753 60.30756 32155 ft 468 kts 329°
2026-04-26 08:32 48.80680 60.26818 32152 ft 468 kts 329°
2026-04-26 08:32 48.86652 60.22838 32155 ft 469 kts 329°
2026-04-26 08:33 48.92633 60.18842 32161 ft 469 kts 329°
2026-04-26 08:33 48.98578 60.14859 32143 ft 469 kts 329°
2026-04-26 08:34 49.04558 60.10845 32150 ft 470 kts 329°
2026-04-26 08:34 49.10535 60.06820 32145 ft 470 kts 329°
2026-04-26 08:35 49.16515 60.02783 32132 ft 470 kts 329°
2026-04-26 08:35 49.22497 59.98734 32138 ft 469 kts 329°
2026-04-26 08:36 49.28484 59.94670 32134 ft 470 kts 329°
2026-04-26 08:36 49.34442 59.90615 32125 ft 470 kts 329°
2026-04-26 08:37 49.40428 59.86531 32122 ft 471 kts 329°
2026-04-26 08:37 49.46415 59.82435 32138 ft 471 kts 329°
2026-04-26 08:38 49.52379 59.78345 32127 ft 472 kts 329°
2026-04-26 08:38 49.58383 59.74214 32115 ft 472 kts 329°
2026-04-26 08:39 49.64386 59.70072 32112 ft 472 kts 329°
2026-04-26 08:39 49.70352 59.65945 32114 ft 473 kts 330°
2026-04-26 08:40 49.76365 59.61775 32119 ft 473 kts 330°
2026-04-26 08:40 49.82376 59.57596 32114 ft 473 kts 330°
2026-04-26 08:41 49.88378 59.53411 32102 ft 473 kts 330°
2026-04-26 08:41 49.94372 59.49221 32101 ft 473 kts 329°
2026-04-26 08:42 49.99355 59.45728 32101 ft 473 kts 330°
2026-04-26 08:42 50.05355 59.41511 32088 ft 472 kts 330°
2026-04-26 08:43 50.11338 59.37295 32105 ft 473 kts 330°
2026-04-26 08:43 50.17334 59.33059 32080 ft 473 kts 330°
2026-04-26 08:44 50.23288 59.28840 32085 ft 473 kts 330°
2026-04-26 08:44 50.29276 59.24586 32079 ft 473 kts 330°
2026-04-26 08:45 50.35270 59.20315 32090 ft 473 kts 330°
2026-04-26 08:45 50.41278 59.16022 32079 ft 474 kts 330°
2026-04-26 08:46 50.47253 59.11742 32077 ft 474 kts 330°
2026-04-26 08:46 50.53270 59.07419 32095 ft 475 kts 330°
2026-04-26 08:47 50.59286 59.03085 32067 ft 475 kts 330°
2026-04-26 08:47 50.65297 58.98744 32065 ft 475 kts 330°
2026-04-26 08:48 50.71308 58.94389 32062 ft 475 kts 330°
2026-04-26 08:48 50.77278 58.90047 32073 ft 475 kts 330°
2026-04-26 08:49 50.83279 58.85671 32056 ft 474 kts 330°
2026-04-26 08:49 50.89274 58.81289 32050 ft 474 kts 330°
2026-04-26 08:50 50.95267 58.76896 32049 ft 473 kts 330°
2026-04-26 08:50 51.01209 58.72527 32053 ft 473 kts 330°
2026-04-26 08:51 51.10183 58.65905 32050 ft 474 kts 330°
2026-04-26 08:52 51.16176 58.61468 32050 ft 474 kts 330°
2026-04-26 08:52 51.22117 58.57056 32055 ft 475 kts 330°
2026-04-26 08:53 51.28104 58.52597 32044 ft 475 kts 330°
2026-04-26 08:53 51.34092 58.48126 32033 ft 475 kts 330°
2026-04-26 08:54 51.40086 58.43637 32037 ft 475 kts 330°
2026-04-26 08:54 51.46077 58.39137 32023 ft 475 kts 330°
2026-04-26 08:55 51.52058 58.34650 32021 ft 475 kts 332°
2026-04-26 08:55 51.58204 58.30703 32033 ft 476 kts 334°
2026-04-26 08:56 51.64360 58.26943 32048 ft 476 kts 335°
2026-04-26 08:56 51.70544 58.23125 32019 ft 475 kts 334°
2026-04-26 08:57 51.76713 58.19270 32021 ft 475 kts 334°
2026-04-26 08:57 51.82881 58.15397 32005 ft 475 kts 334°
2026-04-26 08:58 51.88998 58.11547 32027 ft 474 kts 334°
2026-04-26 08:58 51.95150 58.07665 32010 ft 474 kts 334°
2026-04-26 08:59 52.01305 58.03770 32007 ft 474 kts 334°
2026-04-26 08:59 52.07455 57.99874 31998 ft 473 kts 334°
2026-04-26 09:00 52.13558 57.96001 31994 ft 474 kts 334°
2026-04-26 09:00 52.19697 57.92094 31996 ft 473 kts 334°
2026-04-26 09:01 52.25827 57.88180 31999 ft 473 kts 334°
2026-04-26 09:01 52.31966 57.84249 31993 ft 474 kts 334°
2026-04-26 09:02 52.38108 57.80289 31993 ft 474 kts 334°
2026-04-26 09:02 52.44247 57.76309 31987 ft 474 kts 334°
2026-04-26 09:03 52.50368 57.72332 31982 ft 473 kts 334°
2026-04-26 09:03 52.56493 57.68341 31978 ft 472 kts 334°
2026-04-26 09:04 52.62563 57.64376 31986 ft 472 kts 334°
2026-04-26 09:04 52.68666 57.60377 31978 ft 471 kts 334°
2026-04-26 09:05 52.74760 57.56371 31984 ft 471 kts 334°
2026-04-26 09:05 52.80850 57.52357 31976 ft 471 kts 334°
2026-04-26 09:06 52.86932 57.48333 31971 ft 471 kts 334°
2026-04-26 09:06 52.93009 57.44299 31967 ft 470 kts 334°
2026-04-26 09:07 52.99084 57.40255 31976 ft 470 kts 334°
2026-04-26 09:07 53.05117 57.36228 31970 ft 470 kts 334°
2026-04-26 09:08 53.11192 57.32160 31972 ft 470 kts 334°
2026-04-26 09:08 53.17260 57.28085 31967 ft 470 kts 334°
2026-04-26 09:09 53.23315 57.23987 31965 ft 469 kts 334°
2026-04-26 09:09 53.29331 57.19901 31973 ft 469 kts 334°
2026-04-26 09:10 53.35371 57.15790 31974 ft 468 kts 334°
2026-04-26 09:10 53.41420 57.11663 31971 ft 468 kts 334°
2026-04-26 09:11 53.47417 57.07583 31963 ft 468 kts 334°
2026-04-26 09:11 53.53454 57.03471 31964 ft 467 kts 334°
2026-04-26 09:12 53.59487 56.99344 31964 ft 467 kts 334°
2026-04-26 09:12 53.65513 56.95209 31960 ft 467 kts 334°
2026-04-26 09:13 53.71532 56.91046 31964 ft 466 kts 333°
2026-04-26 09:13 53.77495 56.86891 31958 ft 466 kts 333°
2026-04-26 09:14 53.83490 56.82711 31968 ft 466 kts 333°
2026-04-26 09:14 53.89512 56.78556 31955 ft 466 kts 334°
2026-04-26 09:15 53.95533 56.74403 31950 ft 466 kts 333°
2026-04-26 09:15 54.01502 56.70230 31950 ft 466 kts 333°
2026-04-26 09:16 54.07492 56.66000 31947 ft 465 kts 333°
2026-04-26 09:16 54.13464 56.61774 31944 ft 464 kts 333°
2026-04-26 09:17 54.19393 56.57570 31940 ft 462 kts 333°
2026-04-26 09:17 54.25332 56.53347 31938 ft 462 kts 333°
2026-04-26 09:18 54.31258 56.49120 31942 ft 461 kts 333°
2026-04-26 09:18 54.37180 56.44884 31931 ft 460 kts 333°
2026-04-26 09:19 54.43072 56.40585 31934 ft 458 kts 330°
2026-04-26 09:19 54.48476 56.35061 31933 ft 452 kts 321°
2026-04-26 09:20 54.53642 56.28859 31927 ft 453 kts 322°
2026-04-26 09:20 54.58851 56.22705 31919 ft 454 kts 322°
2026-04-26 09:21 54.64066 56.16528 31921 ft 454 kts 322°
2026-04-26 09:21 54.69242 56.10351 31916 ft 455 kts 322°
2026-04-26 09:22 54.74451 56.04118 31930 ft 455 kts 322°
2026-04-26 09:22 54.79656 55.97872 31912 ft 455 kts 322°
2026-04-26 09:23 54.84855 55.91617 31907 ft 453 kts 322°
2026-04-26 09:23 54.90028 55.85368 31910 ft 452 kts 321°
2026-04-26 09:24 54.95192 55.79091 31900 ft 452 kts 321°
2026-04-26 09:24 55.00308 55.72857 31896 ft 451 kts 321°
2026-04-26 09:25 55.05451 55.66594 31913 ft 450 kts 321°
2026-04-26 09:25 55.10583 55.60344 31913 ft 450 kts 321°
2026-04-26 09:26 55.15713 55.54075 31887 ft 450 kts 321°
2026-04-26 09:26 55.20846 55.47778 31899 ft 450 kts 321°
2026-04-26 09:27 55.25969 55.41474 31892 ft 449 kts 321°
2026-04-26 09:27 55.31055 55.35196 31899 ft 449 kts 321°
2026-04-26 09:28 55.36175 55.28857 31905 ft 448 kts 321°
2026-04-26 09:28 55.41276 55.22512 31929 ft 450 kts 321°
2026-04-26 09:29 55.46360 55.16152 31905 ft 451 kts 321°
2026-04-26 09:29 55.51480 55.09727 31898 ft 452 kts 321°
2026-04-26 09:30 55.56599 55.03283 31890 ft 452 kts 321°
2026-04-26 09:30 55.60856 54.97910 31891 ft 452 kts 321°
2026-04-26 09:31 55.65971 54.91435 31905 ft 452 kts 321°
2026-04-26 09:31 55.71082 54.84943 31893 ft 451 kts 321°
2026-04-26 09:32 55.76175 54.78453 31888 ft 449 kts 321°
2026-04-26 09:32 55.81247 54.71968 31884 ft 449 kts 320°
2026-04-26 09:33 55.86304 54.65481 31906 ft 448 kts 320°
2026-04-26 09:33 55.91355 54.58979 31872 ft 448 kts 320°
2026-04-26 09:34 55.96371 54.52504 31872 ft 447 kts 320°
2026-04-26 09:34 56.01407 54.45980 31892 ft 447 kts 320°
2026-04-26 09:35 56.06443 54.39437 31894 ft 447 kts 320°
2026-04-26 09:35 56.11456 54.32937 31881 ft 447 kts 321°
2026-04-26 09:36 56.16650 54.26740 31876 ft 448 kts 323°
2026-04-26 09:36 56.21878 54.20611 31878 ft 448 kts 322°
2026-04-26 09:37 56.27072 54.14423 31872 ft 447 kts 322°
2026-04-26 09:37 56.32246 54.08199 31891 ft 447 kts 322°
2026-04-26 09:38 56.37384 54.02001 31873 ft 447 kts 322°
2026-04-26 09:38 56.42552 53.95745 31870 ft 446 kts 322°
2026-04-26 09:39 56.47707 53.89452 31865 ft 446 kts 322°
2026-04-26 09:39 56.52845 53.83166 31863 ft 446 kts 322°
2026-04-26 09:40 56.57986 53.76881 31876 ft 446 kts 322°
2026-04-26 09:40 56.63124 53.70580 31868 ft 445 kts 322°
2026-04-26 09:41 56.68230 53.64296 31869 ft 445 kts 322°
2026-04-26 09:41 56.73352 53.57970 31865 ft 445 kts 321°
2026-04-26 09:42 56.78481 53.51618 31862 ft 445 kts 321°
2026-04-26 09:42 56.83378 53.44774 31865 ft 441 kts 314°
2026-04-26 09:43 56.87546 53.36634 31863 ft 437 kts 307°
2026-04-26 09:43 56.91415 53.28092 31858 ft 438 kts 307°
2026-04-26 09:44 56.95320 53.19511 31858 ft 438 kts 307°
2026-04-26 09:44 56.99211 53.10973 31873 ft 439 kts 307°
2026-04-26 09:45 57.03128 53.02354 31850 ft 439 kts 307°
2026-04-26 09:45 57.07037 52.93722 31851 ft 438 kts 307°
2026-04-26 09:46 57.10937 52.85093 31853 ft 438 kts 307°
2026-04-26 09:46 57.14800 52.76528 31845 ft 437 kts 307°
2026-04-26 09:47 57.18682 52.67893 31860 ft 437 kts 307°
2026-04-26 09:47 57.22559 52.59234 31847 ft 437 kts 307°
2026-04-26 09:48 57.26432 52.50554 31846 ft 436 kts 306°
2026-04-26 09:48 57.30268 52.41925 31844 ft 436 kts 306°
2026-04-26 09:49 57.34124 52.33222 31842 ft 436 kts 306°
2026-04-26 09:49 57.38001 52.24591 32154 ft 441 kts 311°
2026-04-26 09:49 57.40360 52.20870 32396 ft 448 kts 321°
2026-04-26 09:50 57.43025 52.17797 32694 ft 453 kts 327°
2026-04-26 09:50 57.45902 52.15335 32980 ft 460 kts 336°
2026-04-26 09:50 57.48983 52.13620 33250 ft 463 kts 339°
2026-04-26 09:50 57.52102 52.12033 33489 ft 465 kts 339°
2026-04-26 09:51 57.55233 52.10464 33722 ft 467 kts 339°
2026-04-26 09:51 57.61527 52.07253 33824 ft 469 kts 339°
2026-04-26 09:52 57.67796 52.03961 33839 ft 467 kts 339°
2026-04-26 09:52 57.77120 51.98982 33838 ft 465 kts 339°
2026-04-26 09:53 57.83347 51.95639 33834 ft 464 kts 339°
2026-04-26 09:53 57.89569 51.92288 33836 ft 464 kts 339°
2026-04-26 09:54 57.95790 51.88925 33843 ft 467 kts 339°
2026-04-26 09:54 58.02050 51.85532 33845 ft 469 kts 339°
2026-04-26 09:55 58.08293 51.82136 33836 ft 471 kts 339°
2026-04-26 09:55 58.14603 51.78692 33840 ft 473 kts 339°
2026-04-26 09:56 58.20932 51.75225 33830 ft 473 kts 339°
2026-04-26 09:56 58.27275 51.71736 33837 ft 474 kts 339°
2026-04-26 09:57 58.33619 51.68236 33825 ft 474 kts 339°
2026-04-26 09:57 58.39954 51.64673 33826 ft 472 kts 336°
2026-04-26 09:58 58.45867 51.59676 33830 ft 464 kts 326°
2026-04-26 09:58 58.51495 51.53671 33821 ft 464 kts 326°
2026-04-26 09:59 58.57154 51.47715 33816 ft 464 kts 327°
2026-04-26 09:59 58.62823 51.41787 33811 ft 464 kts 326°
2026-04-26 10:00 58.68473 51.35827 33829 ft 464 kts 327°
2026-04-26 10:00 58.74137 51.29824 33814 ft 465 kts 327°
2026-04-26 10:01 58.79770 51.23839 33819 ft 466 kts 327°
2026-04-26 10:01 58.85452 51.17783 33805 ft 466 kts 327°
2026-04-26 10:02 58.91137 51.11702 33805 ft 467 kts 327°
2026-04-26 10:02 58.96820 51.05611 33801 ft 467 kts 327°
2026-04-26 10:03 59.02506 50.99496 33820 ft 467 kts 326°
2026-04-26 10:03 59.08186 50.93342 33805 ft 467 kts 326°
2026-04-26 10:04 59.13858 50.87152 33801 ft 467 kts 326°
2026-04-26 10:04 59.19533 50.80945 33794 ft 467 kts 326°
2026-04-26 10:05 59.25556 50.76299 33790 ft 477 kts 345°
2026-04-26 10:05 59.32265 50.76094 33795 ft 491 kts
2026-04-26 10:06 59.39008 50.78463 33790 ft 492 kts
2026-04-26 10:06 59.45735 50.80646 33800 ft 493 kts
2026-04-26 10:07 59.52529 50.82803 33792 ft 494 kts
2026-04-26 10:07 59.59323 50.84982 33785 ft 495 kts
2026-04-26 10:08 59.66144 50.86965 33769 ft 494 kts
2026-04-26 10:08 59.72964 50.88623 33776 ft 494 kts
2026-04-26 10:09 59.79744 50.90312 33775 ft 494 kts
2026-04-26 10:09 59.86558 50.92076 33779 ft 494 kts
2026-04-26 10:10 59.93379 50.93860 33770 ft 494 kts
2026-04-26 10:10 60.00200 50.95654 33777 ft 494 kts
2026-04-26 10:11 60.06978 50.98113 33763 ft 496 kts
2026-04-26 10:11 60.13703 51.00875 33777 ft 496 kts
2026-04-26 10:12 60.20477 51.03625 33763 ft 496 kts
2026-04-26 10:12 60.27249 51.06327 33764 ft 496 kts
2026-04-26 10:13 60.34031 51.09034 33758 ft 496 kts
2026-04-26 10:13 60.40809 51.11757 33759 ft 496 kts
2026-04-26 10:14 60.47546 51.14474 33753 ft 496 kts
2026-04-26 10:14 60.54320 51.17204 33763 ft 496 kts
2026-04-26 10:15 60.61098 51.19942 33765 ft 496 kts
2026-04-26 10:15 60.67877 51.22698 33752 ft 496 kts
2026-04-26 10:16 60.74658 51.25467 33743 ft 496 kts
2026-04-26 10:16 60.81410 51.27096 33736 ft 488 kts 355°
2026-04-26 10:17 60.88087 51.25413 33740 ft 479 kts 341°
2026-04-26 10:17 60.94519 51.21797 33759 ft 479 kts 341°
2026-04-26 10:18 61.00983 51.18390 33745 ft 480 kts 342°
2026-04-26 10:18 61.06374 51.15594 33739 ft 481 kts 342°
2026-04-26 10:19 61.13931 51.11647 33731 ft 482 kts 342°
2026-04-26 10:19 61.19385 51.08776 33730 ft 482 kts 342°
2026-04-26 10:20 61.25859 51.05350 33739 ft 483 kts 342°
2026-04-26 10:20 61.32375 51.01888 33729 ft 483 kts 342°
2026-04-26 10:21 61.38893 50.98412 33722 ft 484 kts 342°
2026-04-26 10:21 61.45418 50.94916 33720 ft 484 kts 342°
2026-04-26 10:22 61.51948 50.91403 33722 ft 484 kts 342°
2026-04-26 10:22 61.58422 50.87905 33733 ft 484 kts 342°
2026-04-26 10:23 61.64941 50.84368 33722 ft 484 kts 342°
2026-04-26 10:23 61.71485 50.80901 33721 ft 484 kts 343°
2026-04-26 10:24 61.78031 50.77481 33720 ft 484 kts 343°
2026-04-26 10:24 61.84574 50.74036 33718 ft 484 kts 342°
2026-04-26 10:25 61.91117 50.70566 33730 ft 484 kts 343°
2026-04-26 10:25 61.97619 50.67098 33707 ft 485 kts 343°
2026-04-26 10:26 62.04164 50.63594 33708 ft 485 kts 343°
2026-04-26 10:26 62.10715 50.60073 33719 ft 486 kts 342°
2026-04-26 10:27 62.17281 50.56526 33721 ft 486 kts 342°
2026-04-26 10:27 62.23909 50.53810 33739 ft 489 kts 350°
2026-04-26 10:28 62.30698 50.52184 33717 ft 490 kts 351°
2026-04-26 10:28 62.37451 50.50547 33708 ft 491 kts 351°
2026-04-26 10:29 62.44239 50.48801 33710 ft 491 kts 350°
2026-04-26 10:29 62.51038 50.47030 33705 ft 492 kts 350°
2026-04-26 10:30 62.57806 50.44979 33711 ft 490 kts 346°
2026-04-26 10:30 62.64468 50.41878 33714 ft 490 kts 344°
2026-04-26 10:31 62.71124 50.38552 33706 ft 490 kts 345°
2026-04-26 10:31 62.77787 50.35324 33704 ft 491 kts 345°
2026-04-26 10:32 62.84461 50.32163 33703 ft 491 kts 345°
2026-04-26 10:32 62.91092 50.29027 33705 ft 491 kts 345°
2026-04-26 10:33 62.97767 50.25851 33703 ft 491 kts 345°
2026-04-26 10:33 63.04432 50.22660 33706 ft 490 kts 345°
2026-04-26 10:34 63.11108 50.19447 33704 ft 490 kts 345°
2026-04-26 10:34 63.17783 50.16220 33703 ft 490 kts 345°
2026-04-26 10:35 63.24454 50.12979 33703 ft 490 kts 345°
2026-04-26 10:35 63.31116 50.09728 33705 ft 490 kts 345°
2026-04-26 10:36 63.37741 50.06479 33700 ft 491 kts 345°
2026-04-26 10:36 63.44412 50.03193 33702 ft 491 kts 345°
2026-04-26 10:37 63.51089 49.99888 33701 ft 491 kts 345°
2026-04-26 10:37 63.57771 49.96565 33708 ft 491 kts 345°
2026-04-26 10:38 63.64405 49.93252 33714 ft 492 kts 345°
2026-04-26 10:38 63.71096 49.89891 33694 ft 493 kts 345°
2026-04-26 10:39 63.77785 49.86505 33698 ft 493 kts 345°
2026-04-26 10:39 63.84495 49.83094 33694 ft 493 kts 345°
2026-04-26 10:40 63.91199 49.79672 33701 ft 493 kts 345°
2026-04-26 10:40 63.97908 49.76233 33694 ft 494 kts 345°
2026-04-26 10:41 64.04575 49.72797 33702 ft 494 kts 345°
2026-04-26 10:41 64.11283 49.69323 33689 ft 494 kts 345°
2026-04-26 10:42 64.18000 49.65826 33696 ft 494 kts 345°
2026-04-26 10:42 64.24710 49.62317 33692 ft 495 kts 345°
2026-04-26 10:43 64.31430 49.58786 33704 ft 495 kts 345°
2026-04-26 10:43 64.38127 49.55248 33691 ft 496 kts 345°
2026-04-26 10:44 64.44860 49.51675 33689 ft 496 kts 345°
2026-04-26 10:44 64.51597 49.48081 33692 ft 496 kts 345°
2026-04-26 10:45 64.58336 49.44464 33689 ft 497 kts 345°
2026-04-26 10:45 64.65024 49.40855 33701 ft 497 kts 345°
2026-04-26 10:46 64.71772 49.37198 33693 ft 497 kts 345°
2026-04-26 10:46 64.78525 49.33522 33682 ft 498 kts 345°
2026-04-26 10:47 64.85246 49.29598 33690 ft 497 kts 343°
2026-04-26 10:47 64.91939 49.25419 33683 ft 497 kts 343°
2026-04-26 10:48 64.98619 49.21258 33696 ft 496 kts 343°
2026-04-26 10:48 65.05260 49.17148 33673 ft 496 kts 343°
2026-04-26 10:49 65.11939 49.13001 33678 ft 496 kts 343°
2026-04-26 10:49 65.18615 49.08832 33679 ft 495 kts 343°
2026-04-26 10:50 65.24154 49.05362 33674 ft 495 kts 343°
2026-04-26 10:50 65.31963 49.00484 33673 ft 496 kts 343°
2026-04-26 10:51 65.41934 48.94200 33677 ft 496 kts 343°
2026-04-26 10:52 65.48623 48.89907 33683 ft 497 kts 343°
2026-04-26 10:52 65.55319 48.85591 33679 ft 497 kts 343°
2026-04-26 10:53 65.61974 48.81287 33678 ft 497 kts 343°
2026-04-26 10:53 65.68782 48.78268 33698 ft 498 kts 351°
2026-04-26 10:54 65.79124 48.75218 33679 ft 499 kts 351°
2026-04-26 10:54 65.86020 48.72988 33679 ft 500 kts 351°
2026-04-26 10:55 65.92878 48.70762 33681 ft 500 kts 351°
2026-04-26 10:55 65.98659 48.68890 33679 ft 500 kts 351°
2026-04-26 10:56 66.06692 48.66279 33683 ft 500 kts 351°
2026-04-26 10:56 66.13561 48.64029 33681 ft 500 kts 351°
2026-04-26 10:57 66.20463 48.61757 33678 ft 500 kts 351°
2026-04-26 10:57 66.27370 48.59470 33679 ft 500 kts 351°
2026-04-26 10:58 66.34283 48.57168 33679 ft 500 kts 351°
2026-04-26 10:58 66.41195 48.54854 33678 ft 500 kts 351°
2026-04-26 10:59 66.48062 48.52542 33679 ft 500 kts 351°
2026-04-26 10:59 66.54964 48.50205 33680 ft 500 kts 351°
2026-04-26 11:00 66.61873 48.47853 33680 ft 500 kts 351°
2026-04-26 11:00 66.68781 48.45490 33683 ft 501 kts 351°
2026-04-26 11:01 66.75653 48.43125 33682 ft 501 kts 351°
2026-04-26 11:01 66.82576 48.40732 33679 ft 502 kts 350°
2026-04-26 11:02 66.89495 48.38318 33682 ft 502 kts 350°
2026-04-26 11:02 66.96423 48.35864 33675 ft 502 kts 350°
2026-04-26 11:03 67.03362 48.33391 33676 ft 502 kts 350°
2026-04-26 11:03 67.10266 48.30925 33677 ft 503 kts 350°
2026-04-26 11:04 67.17204 48.28432 33674 ft 502 kts 350°
2026-04-26 11:04 67.24134 48.25943 33683 ft 503 kts 351°
2026-04-26 11:05 67.31030 48.23469 33671 ft 503 kts 351°
2026-04-26 11:05 67.37983 48.20960 33672 ft 504 kts 351°
2026-04-26 11:06 67.43766 48.18861 33670 ft 504 kts 351°
2026-04-26 11:06 67.50721 48.16319 33665 ft 504 kts 350°
2026-04-26 11:07 67.57671 48.13746 33668 ft 504 kts 350°
2026-04-26 11:07 67.64624 48.11156 33675 ft 505 kts 350°
2026-04-26 11:08 67.71591 48.08551 33666 ft 505 kts 350°
2026-04-26 11:08 67.78507 48.05953 33657 ft 505 kts 350°
2026-04-26 11:09 67.85469 48.03319 33657 ft 505 kts 350°
2026-04-26 11:09 67.92431 48.00663 33654 ft 505 kts 350°
2026-04-26 11:10 67.99388 47.97993 33652 ft 505 kts 350°
2026-04-26 11:10 68.06357 47.95305 33654 ft 506 kts 350°
2026-04-26 11:11 68.13326 47.92604 33646 ft 506 kts 350°
2026-04-26 11:11 68.20273 47.89894 33646 ft 506 kts 350°
2026-04-26 11:12 68.27245 47.87157 33649 ft 506 kts 350°
2026-04-26 11:12 68.34227 47.84399 33634 ft 507 kts 350°
2026-04-26 11:13 68.41215 47.81623 33650 ft 507 kts 351°
2026-04-26 11:13 68.48198 47.78832 33626 ft 507 kts 351°
2026-04-26 11:14 68.55190 47.76021 33643 ft 508 kts 351°
2026-04-26 11:14 68.62147 47.73204 33633 ft 508 kts 351°
2026-04-26 11:15 68.69143 47.70357 33623 ft 508 kts 351°
2026-04-26 11:15 68.76142 47.67496 33623 ft 508 kts 350°
2026-04-26 11:16 68.83138 47.64617 33627 ft 508 kts 351°
2026-04-26 11:16 68.90130 47.61722 33617 ft 508 kts 351°
2026-04-26 11:17 68.97086 47.58822 33625 ft 508 kts 351°
2026-04-26 11:17 69.04069 47.55893 33606 ft 508 kts 351°
2026-04-26 11:18 69.11062 47.52941 33608 ft 508 kts 351°
2026-04-26 11:18 69.18049 47.49973 33618 ft 508 kts 351°
2026-04-26 11:19 69.25046 47.46980 33613 ft 508 kts 351°
2026-04-26 11:19 69.32030 47.43974 33605 ft 508 kts 351°
2026-04-26 11:20 69.37857 47.41451 33601 ft 508 kts 351°
2026-04-26 11:20 69.45982 47.37909 33601 ft 508 kts 351°
2026-04-26 11:21 69.52980 47.34837 33584 ft 508 kts 351°
2026-04-26 11:21 69.59925 47.31769 33601 ft 508 kts 351°
2026-04-26 11:22 69.66922 47.28657 33589 ft 508 kts 351°
2026-04-26 11:22 69.73911 47.25528 33580 ft 508 kts 351°
2026-04-26 11:23 69.80919 47.22372 33583 ft 509 kts 351°
2026-04-26 11:23 69.87888 47.19212 33583 ft 509 kts 351°
2026-04-26 11:24 69.94882 47.16005 33579 ft 509 kts 351°
2026-04-26 11:24 70.01886 47.12768 33586 ft 509 kts 351°
2026-04-26 11:25 70.08892 47.09512 33565 ft 509 kts 351°
2026-04-26 11:25 70.15846 47.06262 33574 ft 508 kts 351°
2026-04-26 11:26 70.22839 47.02971 33564 ft 508 kts 350°
2026-04-26 11:26 70.29824 46.99662 33558 ft 508 kts 350°
2026-04-26 11:27 70.36815 46.96326 33564 ft 509 kts 350°
2026-04-26 11:27 70.43804 46.92967 33559 ft 509 kts 350°
2026-04-26 11:28 70.50808 46.89579 33564 ft 509 kts 350°
2026-04-26 11:28 70.57748 46.86198 33564 ft 509 kts 350°
2026-04-26 11:29 70.64746 46.82764 33564 ft 509 kts 350°
2026-04-26 11:29 70.71743 46.79306 33565 ft 508 kts 350°
2026-04-26 11:30 70.77557 46.76415 33559 ft 508 kts 350°
2026-04-26 11:30 70.85672 46.72351 33566 ft 509 kts 350°
2026-04-26 11:31 70.92666 46.68821 33560 ft 509 kts 350°
2026-04-26 11:31 70.99665 46.65264 33563 ft 509 kts 350°
2026-04-26 11:32 71.06664 46.61680 33563 ft 510 kts 350°
2026-04-26 11:32 71.13670 46.58067 33574 ft 511 kts 350°
2026-04-26 11:33 71.20683 46.54425 33566 ft 511 kts 350°
2026-04-26 11:33 71.27643 46.50784 33551 ft 509 kts 350°
2026-04-26 11:34 71.34641 46.47097 33586 ft 509 kts 350°
2026-04-26 11:34 71.41652 46.43377 33585 ft 511 kts 350°
2026-04-26 11:35 71.48680 46.39620 33595 ft 511 kts 350°
2026-04-26 11:35 71.54435 46.35247 33584 ft 512 kts 341°
2026-04-26 11:36 71.62199 46.26256 33585 ft 511 kts 339°
2026-04-26 11:36 71.68848 46.18274 33582 ft 510 kts 339°
2026-04-26 11:37 71.75524 46.10363 33601 ft 510 kts 339°
2026-04-26 11:37 71.82134 46.02576 33593 ft 509 kts 339°
2026-04-26 11:38 71.88789 45.94696 33588 ft 510 kts 339°
2026-04-26 11:38 71.95448 45.86743 33629 ft 510 kts 339°
2026-04-26 11:39 72.02113 45.78718 33615 ft 511 kts 339°
2026-04-26 11:39 72.08795 45.70608 33627 ft 513 kts 339°
2026-04-26 11:40 72.15460 45.62453 33627 ft 516 kts 339°
2026-04-26 11:40 72.22198 45.54145 33636 ft 517 kts 339°
2026-04-26 11:42 72.48834 45.20661 33638 ft 510 kts 339°
2026-04-26 11:43 72.55377 45.12274 33652 ft 506 kts 339°
2026-04-26 11:43 72.61957 45.03771 33652 ft 509 kts 339°
2026-04-26 11:44 72.68573 44.95153 33671 ft 511 kts 339°
2026-04-26 11:44 72.75217 44.86430 33671 ft 513 kts 339°
2026-04-26 11:45 72.81868 44.77631 33671 ft 513 kts 338°
2026-04-26 11:45 72.88484 44.68804 33663 ft 512 kts 338°
2026-04-26 11:46 72.95118 44.59879 33683 ft 512 kts 338°
2026-04-26 11:46 73.01747 44.50893 33671 ft 512 kts 338°
2026-04-26 11:47 73.08368 44.41842 33695 ft 511 kts 338°
2026-04-26 11:47 73.14975 44.32733 33692 ft 511 kts 338°
2026-04-26 11:48 73.21571 44.23568 33691 ft 510 kts 338°
2026-04-26 11:48 73.28102 44.14418 33700 ft 509 kts 338°
2026-04-26 11:49 73.34664 44.05147 33709 ft 509 kts 338°
2026-04-26 11:49 73.41228 43.95796 33713 ft 509 kts 338°
2026-04-26 11:50 73.47781 43.86385 33687 ft 508 kts 337°
2026-04-26 11:50 73.54323 43.76910 33687 ft 507 kts 337°
2026-04-26 11:51 73.60803 43.67446 33713 ft 507 kts 337°
2026-04-26 11:51 73.67317 43.57853 33716 ft 507 kts 337°
2026-04-26 11:52 73.72730 43.49826 33717 ft 507 kts 337°
2026-04-26 11:52 73.79243 43.40093 33736 ft 507 kts 337°
2026-04-26 11:53 73.85756 43.30327 33733 ft 507 kts 337°
2026-04-26 11:54 73.95521 43.15562 33729 ft 506 kts 337°
2026-04-26 11:54 74.02001 43.05654 33730 ft 505 kts 336°
2026-04-26 11:55 74.08439 42.95723 33736 ft 505 kts 336°
2026-04-26 11:55 74.14902 42.85666 33737 ft 505 kts 336°
2026-04-26 11:56 74.21372 42.75511 33745 ft 505 kts 336°
2026-04-26 11:56 74.27795 42.65341 33745 ft 505 kts 336°
2026-04-26 11:57 74.34245 42.55040 33745 ft 505 kts 336°
2026-04-26 11:57 74.40699 42.44643 33747 ft 505 kts 336°
2026-04-26 11:58 74.47148 42.34160 33747 ft 505 kts 336°
2026-04-26 11:58 74.53595 42.23588 33764 ft 505 kts 336°
2026-04-26 11:59 74.60034 42.12934 33765 ft 505 kts 336°
2026-04-26 11:59 74.66469 42.02192 33749 ft 505 kts 335°
2026-04-26 12:00 74.72891 41.91375 33766 ft 505 kts 335°
2026-04-26 12:00 74.79264 41.80554 33772 ft 505 kts 335°
2026-04-26 12:01 74.85694 41.69624 33769 ft 505 kts 336°
2026-04-26 12:01 74.92146 41.58892 33769 ft 505 kts 336°
2026-04-26 12:02 74.98593 41.48132 33767 ft 505 kts 336°
2026-04-26 12:02 75.05037 41.37237 33785 ft 504 kts 336°
2026-04-26 12:03 75.11423 41.26313 33769 ft 504 kts 335°
2026-04-26 12:03 75.17839 41.15226 33781 ft 504 kts 335°
2026-04-26 12:04 75.24257 41.04033 33797 ft 504 kts 335°
2026-04-26 12:04 75.30667 40.92750 33783 ft 504 kts 335°
2026-04-26 12:05 75.37071 40.81375 33783 ft 504 kts 335°
2026-04-26 12:05 75.43469 40.69902 33788 ft 504 kts 335°
2026-04-26 12:06 75.49816 40.58411 33788 ft 504 kts 335°
2026-04-26 12:06 75.56204 40.46738 33791 ft 504 kts 335°
2026-04-26 12:07 75.62588 40.34959 33794 ft 504 kts 334°
2026-04-26 12:07 75.68960 40.23087 33796 ft 504 kts 334°
2026-04-26 12:08 75.75340 40.11088 33809 ft 504 kts 334°
2026-04-26 12:08 75.81700 39.99006 33805 ft 504 kts 334°
2026-04-26 12:09 75.88054 39.86820 33794 ft 504 kts 334°
2026-04-26 12:09 75.94366 39.74596 33798 ft 504 kts 334°
2026-04-26 12:10 76.00728 39.62153 33815 ft 505 kts 334°
2026-04-26 12:10 76.07075 39.49614 33816 ft 505 kts 334°
2026-04-26 12:11 76.13409 39.36976 33823 ft 505 kts 334°
2026-04-26 12:11 76.19703 39.24294 33824 ft 505 kts 333°
2026-04-26 12:12 76.26028 39.11423 33824 ft 505 kts 333°
2026-04-26 12:12 76.32340 38.98443 33835 ft 505 kts 333°
2026-04-26 12:13 76.38656 38.85326 33837 ft 505 kts 333°
2026-04-26 12:13 76.44955 38.72110 33834 ft 504 kts 333°
2026-04-26 12:14 76.51249 38.58768 33833 ft 504 kts 333°
2026-04-26 12:14 76.57485 38.45413 33842 ft 504 kts 333°
2026-04-26 12:15 76.63763 38.31830 33841 ft 504 kts 333°
2026-04-26 12:15 76.70028 38.18132 33855 ft 504 kts 333°
2026-04-26 12:16 76.76303 38.04269 33853 ft 505 kts 332°
2026-04-26 12:16 76.82563 37.90293 33868 ft 505 kts 332°
2026-04-26 12:17 76.88780 37.76266 33853 ft 505 kts 332°
2026-04-26 12:17 76.95041 37.61988 33866 ft 506 kts 332°
2026-04-26 12:18 77.01288 37.47594 33868 ft 505 kts 332°
2026-04-26 12:18 77.07517 37.33082 33875 ft 505 kts 332°
2026-04-26 12:19 77.13734 37.18444 33880 ft 504 kts 332°
2026-04-26 12:19 77.19897 37.03774 33878 ft 503 kts 332°
2026-04-26 12:20 77.26082 36.88894 33888 ft 503 kts 332°
2026-04-26 12:20 77.32270 36.73841 33893 ft 505 kts 331°
2026-04-26 12:21 77.38465 36.58604 33892 ft 505 kts 331°
2026-04-26 12:21 77.44648 36.43234 33901 ft 505 kts 331°
2026-04-26 12:22 77.50835 36.27692 33895 ft 506 kts 331°
2026-04-26 12:22 77.56969 36.12121 33899 ft 506 kts 331°
2026-04-26 12:23 77.63162 35.96479 33904 ft 507 kts 331°
2026-04-26 12:23 77.69366 35.80727 33910 ft 506 kts 331°
2026-04-26 12:24 77.75555 35.64804 33911 ft 505 kts 331°
2026-04-26 12:24 77.81711 35.48762 33913 ft 504 kts 330°
2026-04-26 12:25 77.90869 35.24548 33913 ft 503 kts 330°
2026-04-26 12:25 77.96980 35.08180 33932 ft 503 kts 330°
2026-04-26 12:26 78.03175 34.92580 33923 ft 503 kts 335°
2026-04-26 12:26 78.09610 34.79303 33924 ft 503 kts 338°
2026-04-26 12:27 78.16049 34.66406 33935 ft 503 kts 337°
2026-04-26 12:27 78.22506 34.52999 33929 ft 505 kts 336°
2026-04-26 12:28 78.28976 34.39149 33942 ft 506 kts 336°
2026-04-26 12:28 78.35422 34.25114 33940 ft 506 kts 336°
2026-04-26 12:29 78.41826 34.11016 33956 ft 506 kts 336°
2026-04-26 12:30 78.51448 33.89545 33940 ft 504 kts 336°
2026-04-26 12:30 78.57855 33.75033 33950 ft 504 kts 335°
2026-04-26 12:31 78.67440 33.52989 33963 ft 505 kts 335°
2026-04-26 12:31 78.73828 33.38070 33956 ft 505 kts 335°
2026-04-26 12:32 78.80206 33.22991 33961 ft 505 kts 335°
2026-04-26 12:33 78.89722 33.00138 33964 ft 504 kts 335°
2026-04-26 12:33 78.96076 32.84636 33966 ft 504 kts 335°
2026-04-26 12:34 79.02426 32.68949 33965 ft 504 kts 335°
2026-04-26 12:34 79.08770 32.53078 33981 ft 506 kts 334°
2026-04-26 12:35 79.15133 32.36951 34004 ft 507 kts 334°
2026-04-26 12:35 79.21490 32.20634 33982 ft 507 kts 334°
2026-04-26 12:36 79.27828 32.04152 34010 ft 505 kts 334°
2026-04-26 12:36 79.34093 31.87645 33975 ft 504 kts 334°
2026-04-26 12:37 79.40391 31.70831 33982 ft 503 kts 334°
2026-04-26 12:37 79.46671 31.53846 34008 ft 504 kts 333°
2026-04-26 12:38 79.51892 31.39555 33992 ft 505 kts 333°
2026-04-26 12:38 79.58183 31.22117 34016 ft 507 kts 333°
2026-04-26 12:39 79.64482 31.04425 34013 ft 507 kts 333°
2026-04-26 12:39 79.70772 30.86517 34023 ft 507 kts 333°
2026-04-26 12:40 79.77002 30.68537 34005 ft 504 kts 332°
2026-04-26 12:40 79.83224 30.50335 34024 ft 501 kts 332°
2026-04-26 12:41 79.89363 30.32128 34039 ft 501 kts 332°
2026-04-26 12:41 79.95549 30.13551 34008 ft 503 kts 332°
2026-04-26 12:42 80.01687 29.94214 34023 ft 504 kts 328°
2026-04-26 12:42 80.07538 29.72263 34037 ft 506 kts 325°
2026-04-26 12:43 80.13375 29.49063 34039 ft 506 kts 325°
2026-04-26 12:43 80.19201 29.25878 34055 ft 504 kts 326°
2026-04-26 12:44 80.25005 29.02754 34055 ft 503 kts 325°
2026-04-26 12:44 80.30798 28.79434 34067 ft 503 kts 325°
2026-04-26 12:45 80.36563 28.55894 34053 ft 502 kts 325°
2026-04-26 12:45 80.42306 28.32074 34061 ft 501 kts 324°
2026-04-26 12:46 80.48020 28.08012 34047 ft 500 kts 324°
2026-04-26 12:46 80.53712 27.83686 34068 ft 499 kts 324°
2026-04-26 12:47 80.59369 27.59147 34076 ft 499 kts 324°
2026-04-26 12:47 80.64995 27.34376 34075 ft 502 kts 323°
2026-04-26 12:48 80.70675 27.08990 34085 ft 504 kts 323°
2026-04-26 12:48 80.76345 26.83251 34089 ft 504 kts 323°
2026-04-26 12:49 80.81992 26.57224 34090 ft 504 kts 323°
2026-04-26 12:49 80.87579 26.31072 34098 ft 504 kts 323°
2026-04-26 12:50 80.93187 26.04408 34098 ft 505 kts 322°
2026-04-26 12:50 80.98796 25.77316 34103 ft 506 kts 322°
2026-04-26 12:51 81.04389 25.49870 34105 ft 506 kts 322°
2026-04-26 12:51 81.09949 25.22145 34107 ft 505 kts 322°
2026-04-26 12:52 81.15450 24.94270 34100 ft 504 kts 321°
2026-04-26 12:52 81.20936 24.66020 34117 ft 501 kts 321°
2026-04-26 12:53 81.26365 24.37609 34123 ft 498 kts 321°
2026-04-26 12:53 81.31762 24.08894 34128 ft 498 kts 320°
2026-04-26 12:54 81.37151 23.79754 34125 ft 500 kts 320°
2026-04-26 12:54 81.42524 23.50223 34144 ft 500 kts 320°
2026-04-26 12:55 81.47849 23.20455 34129 ft 500 kts 320°
2026-04-26 12:55 81.53177 22.90171 34149 ft 500 kts 319°
2026-04-26 12:56 81.58490 22.59459 34140 ft 499 kts 319°
2026-04-26 12:56 81.63729 22.28657 34156 ft 499 kts 319°
2026-04-26 12:57 81.68984 21.97228 34162 ft 500 kts 318°
2026-04-26 12:57 81.74210 21.65420 34164 ft 500 kts 318°
2026-04-26 12:58 81.81999 21.16992 34172 ft 499 kts 318°
2026-04-26 12:58 81.87131 20.84374 34178 ft 499 kts 317°
2026-04-26 12:59 81.92281 20.51103 34186 ft 501 kts 317°
2026-04-26 12:59 81.97471 20.17893 34167 ft 502 kts 322°
2026-04-26 13:00 82.03428 19.91868 34196 ft 502 kts 335°
2026-04-26 13:00 82.09985 19.74677 34208 ft 501 kts 342°
2026-04-26 13:01 82.16602 19.59507 34185 ft 501 kts 343°
2026-04-26 13:01 82.23242 19.43879 34204 ft 500 kts 342°
2026-04-26 13:02 82.29861 19.27592 34217 ft 500 kts 342°
2026-04-26 13:02 82.36450 19.10882 34224 ft 499 kts 341°
2026-04-26 13:03 82.42987 18.93976 34223 ft 500 kts 341°
2026-04-26 13:03 82.49579 18.76637 34235 ft 501 kts 341°
2026-04-26 13:04 82.56163 18.59008 34207 ft 502 kts 341°
2026-04-26 13:04 82.62753 18.41039 34212 ft 502 kts 341°
2026-04-26 13:05 82.69324 18.22779 34393 ft 501 kts 340°
2026-04-26 13:05 82.72602 18.13537 34692 ft 501 kts 340°
2026-04-26 13:05 82.75886 18.04190 34949 ft 502 kts 340°
2026-04-26 13:06 82.79163 17.94770 35287 ft 500 kts 340°
2026-04-26 13:06 82.82431 17.85289 35655 ft 498 kts 340°
2026-04-26 13:06 82.85644 17.75880 35893 ft 499 kts 340°
2026-04-26 13:06 82.88905 17.66237 36142 ft 499 kts 340°
2026-04-26 13:07 82.95460 17.46559 36237 ft 504 kts 339°
2026-04-26 13:07 83.02029 17.26450 36251 ft 502 kts 339°
2026-04-26 13:08 83.08567 17.06028 36250 ft 501 kts 339°
2026-04-26 13:08 83.15084 16.85261 36261 ft 500 kts 339°
2026-04-26 13:09 83.21536 16.64278 36268 ft 500 kts 339°
2026-04-26 13:09 83.28014 16.42779 36276 ft 500 kts 338°
2026-04-26 13:10 83.34504 16.20789 36283 ft 502 kts 338°
2026-04-26 13:10 83.41012 15.98270 36283 ft 504 kts 338°
2026-04-26 13:11 83.47532 15.75223 36287 ft 506 kts 338°
2026-04-26 13:11 83.54017 15.51803 36288 ft 506 kts 337°
2026-04-26 13:12 83.60532 15.27756 36281 ft 506 kts 337°
2026-04-26 13:12 83.67014 15.03299 36302 ft 504 kts 337°
2026-04-26 13:13 83.73467 14.78411 36299 ft 503 kts 336°
2026-04-26 13:13 83.79891 14.53069 36296 ft 502 kts 336°
2026-04-26 13:14 83.86302 14.27206 36326 ft 502 kts 336°
2026-04-26 13:14 83.92659 14.00976 36310 ft 502 kts 335°
2026-04-26 13:15 83.99047 13.73998 36315 ft 502 kts 335°
2026-04-26 13:15 84.04341 13.51161 36316 ft 502 kts 335°
2026-04-26 13:16 84.11781 13.18312 36314 ft 503 kts 335°
2026-04-26 13:16 84.18133 12.89519 36323 ft 503 kts 334°
2026-04-26 13:17 84.27630 12.45162 36316 ft 503 kts 334°
2026-04-26 13:18 84.37054 11.99508 36331 ft 502 kts 334°
2026-04-26 13:19 84.46475 11.52129 36328 ft 502 kts 333°
2026-04-26 13:19 84.52733 11.19646 36335 ft 502 kts 333°
2026-04-26 13:20 84.58971 10.86430 36333 ft 501 kts 332°
2026-04-26 13:20 84.65133 10.52757 36334 ft 501 kts 332°
2026-04-26 13:21 84.71326 10.18025 36332 ft 501 kts 332°
2026-04-26 13:21 84.77494 9.82503 36340 ft 500 kts 331°
2026-04-26 13:22 84.83633 9.46179 36343 ft 500 kts 331°
2026-04-26 13:22 84.89708 9.09256 36342 ft 500 kts 330°
2026-04-26 13:23 84.95804 8.71181 36343 ft 500 kts 330°
2026-04-26 13:23 85.01869 8.32229 36343 ft 500 kts 330°
2026-04-26 13:24 85.07914 7.92294 36342 ft 500 kts 329°
2026-04-26 13:24 85.13935 7.51367 36342 ft 500 kts 329°
2026-04-26 13:25 85.19933 7.09405 36343 ft 500 kts 328°
2026-04-26 13:25 85.25909 6.66361 36342 ft 500 kts 328°
2026-04-26 13:26 85.31848 6.22289 36342 ft 500 kts 327°
2026-04-26 13:26 85.36769 5.84757 36342 ft 500 kts 327°
2026-04-26 13:27 85.42661 5.38544 36343 ft 500 kts 327°
2026-04-26 13:27 85.48520 4.91159 36345 ft 500 kts 326°
2026-04-26 13:28 85.54353 4.42484 36349 ft 501 kts 326°
2026-04-26 13:28 85.60157 3.92492 36350 ft 501 kts 325°
2026-04-26 13:29 85.65921 3.41217 36348 ft 501 kts 324°
2026-04-26 13:29 85.71616 2.88897 36329 ft 501 kts 324°
2026-04-26 13:30 85.77312 2.34800 36336 ft 501 kts 323°
2026-04-26 13:30 85.82966 1.79285 36347 ft 500 kts 323°
2026-04-26 13:31 85.88582 1.22234 36344 ft 500 kts 322°
2026-04-26 13:31 85.94159 0.63658 36321 ft 500 kts 322°
2026-04-26 13:32 85.99685 0.03590 36342 ft 500 kts 320°
2026-04-26 13:32 86.04907 -0.61701 36334 ft 499 kts 317°
2026-04-26 13:33 86.10025 -1.30267 36337 ft 500 kts 316°
2026-04-26 13:33 86.15119 -2.00402 36336 ft 500 kts 316°
2026-04-26 13:34 86.20170 -2.71929 36330 ft 500 kts 315°
2026-04-26 13:34 86.25168 -3.45300 36335 ft 500 kts 315°
2026-04-26 13:35 86.30108 -4.20721 36331 ft 500 kts 314°
2026-04-26 13:35 86.34980 -4.98199 36328 ft 500 kts 313°
2026-04-26 13:36 86.39751 -5.77220 36328 ft 500 kts 312°
2026-04-26 13:36 86.44487 -6.58950 36329 ft 500 kts 311°
2026-04-26 13:37 86.49144 -7.42781 36323 ft 499 kts 310°
2026-04-26 13:37 86.53689 -8.28171 36326 ft 499 kts 309°
2026-04-26 13:38 86.58188 -9.16452 36321 ft 499 kts 309°
2026-04-26 13:38 86.62598 -10.06942 36317 ft 499 kts 308°
2026-04-26 13:39 86.66924 -10.99871 36320 ft 499 kts 307°
2026-04-26 13:39 86.71135 -11.94612 36312 ft 499 kts 306°
2026-04-26 13:40 86.75278 -12.92358 36309 ft 499 kts 305°
2026-04-26 13:40 86.79329 -13.92707 36323 ft 499 kts 304°
2026-04-26 13:41 86.83248 -14.94725 36310 ft 499 kts 303°
2026-04-26 13:41 86.87086 -15.99881 36302 ft 499 kts 302°
2026-04-26 13:42 86.90814 -17.07501 36302 ft 499 kts 301°
2026-04-26 13:42 86.94451 -18.17830 36302 ft 499 kts 300°
2026-04-26 13:43 86.97940 -19.30800 36296 ft 498 kts 296°
2026-04-26 13:43 87.00369 -20.54218 36308 ft 495 kts 282°
2026-04-26 13:44 87.01477 -21.83498 36305 ft 494 kts 276°
2026-04-26 13:44 87.02270 -23.14978 36305 ft 494 kts 275°
2026-04-26 13:45 87.02968 -24.46908 36285 ft 495 kts 274°
2026-04-26 13:45 87.03558 -25.78839 36283 ft 495 kts 273°
2026-04-26 13:46 87.04006 -27.12033 36289 ft 496 kts 272°
2026-04-26 13:46 87.04291 -28.45488 36283 ft 496 kts 270°
2026-04-26 13:47 87.04412 -29.78487 36278 ft 496 kts 269°
2026-04-26 13:47 87.04373 -31.12257 36285 ft 496 kts 268°
2026-04-26 13:48 87.04173 -32.46157 36279 ft 497 kts 266°
2026-04-26 13:48 87.03813 -33.79743 36274 ft 497 kts 265°
2026-04-26 13:49 87.03297 -35.12057 36266 ft 497 kts 264°
2026-04-26 13:49 87.02622 -36.44712 36265 ft 496 kts 263°
2026-04-26 13:50 87.01802 -37.76665 36267 ft 496 kts 262°
2026-04-26 13:50 87.00846 -39.06944 36265 ft 496 kts 262°
2026-04-26 13:51 87.00514 -40.38777 36263 ft 497 kts 270°
2026-04-26 13:51 87.01084 -41.70741 36261 ft 497 kts 277°
2026-04-26 13:52 87.02032 -43.02405 36253 ft 498 kts 277°
2026-04-26 13:52 87.02859 -44.34908 36249 ft 499 kts 275°
2026-04-26 13:53 87.03498 -45.68349 36247 ft 499 kts 274°
2026-04-26 13:53 87.03954 -47.01389 36246 ft 499 kts 272°
2026-04-26 13:54 87.04248 -48.35750 36239 ft 499 kts 271°
2026-04-26 13:54 87.04382 -49.70421 36239 ft 499 kts 270°
2026-04-26 13:55 87.04310 -51.48711 36243 ft 499 kts 268°
2026-04-26 13:56 87.03815 -53.72840 36234 ft 499 kts 266°
2026-04-26 13:56 87.03303 -55.06560 36233 ft 499 kts 265°
2026-04-26 13:57 87.02637 -56.38757 36225 ft 498 kts 263°
2026-04-26 13:57 87.01809 -57.71248 36226 ft 498 kts 262°
2026-04-26 13:58 87.00846 -59.02955 36226 ft 498 kts 261°
2026-04-26 13:58 86.99622 -60.33125 36218 ft 498 kts 255°
2026-04-26 13:59 86.97717 -61.58801 36225 ft 497 kts 253°
2026-04-26 13:59 86.95665 -62.83739 36225 ft 498 kts 252°
2026-04-26 14:00 86.91231 -65.29212 36221 ft 498 kts 250°
2026-04-26 14:01 86.88820 -66.49136 36221 ft 498 kts 249°
2026-04-26 14:01 86.86286 -67.66586 36211 ft 498 kts 248°
2026-04-26 14:02 86.83607 -68.82729 36204 ft 498 kts 246°
2026-04-26 14:02 86.80800 -69.96826 36210 ft 498 kts 245°
2026-04-26 14:03 86.77864 -71.09098 36212 ft 498 kts 244°
2026-04-26 14:03 86.74833 -72.18422 36214 ft 498 kts 244°
2026-04-26 14:04 86.71663 -73.26416 36212 ft 498 kts 243°
2026-04-26 14:04 86.68383 -74.32164 36209 ft 497 kts 241°
2026-04-26 14:05 86.64992 -75.35867 36210 ft 497 kts 240°
2026-04-26 14:05 86.61491 -76.37519 36212 ft 497 kts 239°
2026-04-26 14:06 86.57916 -77.36262 36205 ft 497 kts 239°
2026-04-26 14:06 86.54219 -78.33521 36210 ft 497 kts 238°
2026-04-26 14:07 86.50417 -79.28886 36212 ft 497 kts 237°
2026-04-26 14:07 86.46525 -80.22056 36212 ft 497 kts 236°
2026-04-26 14:08 86.42543 -81.13156 36210 ft 497 kts 235°
2026-04-26 14:08 86.38476 -82.02189 36212 ft 497 kts 234°
2026-04-26 14:09 86.34324 -82.89186 36219 ft 497 kts 233°
2026-04-26 14:09 86.30088 -83.74257 36217 ft 497 kts 232°
2026-04-26 14:10 86.25803 -84.56834 36221 ft 497 kts 231°
2026-04-26 14:10 86.21410 -85.38096 36222 ft 497 kts 231°
2026-04-26 14:11 86.14673 -86.56631 36222 ft 497 kts 230°
2026-04-26 14:11 86.10097 -87.33298 36226 ft 497 kts 229°
2026-04-26 14:12 86.05476 -88.07826 36226 ft 497 kts 228°
2026-04-26 14:12 86.00761 -88.81033 36224 ft 498 kts 227°
2026-04-26 14:13 85.93570 -89.87665 36229 ft 498 kts 226°
2026-04-26 14:14 85.88723 -90.56359 36226 ft 497 kts 226°
2026-04-26 14:14 85.83793 -91.23774 36235 ft 497 kts 225°
2026-04-26 14:15 85.78800 -91.89700 36235 ft 497 kts 224°
2026-04-26 14:15 85.74620 -92.43171 36233 ft 497 kts 224°
2026-04-26 14:16 85.68704 -93.16339 36240 ft 497 kts 223°
2026-04-26 14:16 85.64432 -93.67419 36242 ft 498 kts 223°
2026-04-26 14:17 85.59252 -94.27519 36248 ft 498 kts 222°
2026-04-26 14:17 85.54022 -94.86242 36245 ft 498 kts 221°
2026-04-26 14:18 85.48743 -95.43644 36243 ft 497 kts 221°
2026-04-26 14:18 85.43427 -95.99646 36248 ft 497 kts 220°
2026-04-26 14:19 85.38068 -96.54363 36256 ft 497 kts 220°
2026-04-26 14:19 85.32669 -97.07811 36258 ft 497 kts 219°
2026-04-26 14:20 85.27267 -97.59693 36256 ft 497 kts 219°
2026-04-26 14:20 85.21797 -98.10695 36262 ft 497 kts 218°
2026-04-26 14:21 85.16286 -98.60579 36265 ft 497 kts 218°
2026-04-26 14:21 85.10743 -99.09320 36254 ft 497 kts 218°
2026-04-26 14:22 85.05175 -99.57013 36266 ft 496 kts 217°
2026-04-26 14:22 84.99567 -100.02588 36268 ft 496 kts 213°
2026-04-26 14:23 84.93385 -100.37833 36267 ft 496 kts 206°
2026-04-26 14:23 84.87166 -100.71525 36273 ft 496 kts 207°
2026-04-26 14:24 84.80983 -101.05664 36282 ft 496 kts 207°
2026-04-26 14:24 84.74770 -101.39160 36275 ft 497 kts 207°
2026-04-26 14:25 84.68565 -101.71548 36280 ft 497 kts 207°
2026-04-26 14:25 84.62309 -102.03241 36279 ft 498 kts 206°
2026-04-26 14:26 84.56029 -102.34226 36296 ft 498 kts 206°
2026-04-26 14:26 84.49731 -102.64521 36288 ft 498 kts 206°
2026-04-26 14:27 84.43426 -102.94109 36296 ft 497 kts 205°
2026-04-26 14:27 84.37137 -103.22896 36293 ft 497 kts 205°
2026-04-26 14:28 84.30808 -103.51167 36300 ft 497 kts 205°
2026-04-26 14:28 84.24459 -103.78841 36298 ft 496 kts 205°
2026-04-26 14:29 84.18109 -104.05867 36309 ft 496 kts 204°
2026-04-26 14:29 84.11750 -104.32294 36310 ft 496 kts 204°
2026-04-26 14:30 84.05393 -104.58098 36306 ft 496 kts 204°
2026-04-26 14:30 83.99010 -104.83416 36310 ft 496 kts 204°
2026-04-26 14:31 83.92617 -105.08196 36321 ft 496 kts 204°
2026-04-26 14:31 83.86258 -105.32295 36316 ft 495 kts 203°
2026-04-26 14:32 83.79845 -105.56058 36324 ft 495 kts 203°
2026-04-26 14:32 83.73420 -105.79344 36328 ft 495 kts 203°
2026-04-26 14:33 83.67036 -106.01977 36329 ft 495 kts 202°
2026-04-26 14:33 83.60596 -106.24318 36335 ft 495 kts 202°
2026-04-26 14:34 83.54149 -106.46211 36339 ft 495 kts 202°
2026-04-26 14:34 83.47692 -106.67674 36350 ft 495 kts 202°
2026-04-26 14:35 83.41229 -106.88708 36338 ft 495 kts 202°
2026-04-26 14:35 83.34766 -107.09309 36357 ft 495 kts 202°
2026-04-26 14:36 83.28295 -107.29508 36356 ft 495 kts 202°
2026-04-26 14:36 83.21852 -107.49214 36349 ft 494 kts 202°
2026-04-26 14:37 83.15377 -107.68624 36356 ft 493 kts 201°
2026-04-26 14:37 83.08902 -107.87653 36369 ft 493 kts 201°
2026-04-26 14:38 83.02419 -108.06334 36374 ft 493 kts 201°
2026-04-26 14:38 82.95933 -108.24657 36373 ft 493 kts 201°
2026-04-26 14:39 82.89437 -108.42656 36383 ft 493 kts 201°
2026-04-26 14:39 82.82928 -108.60348 36363 ft 494 kts 201°
2026-04-26 14:40 82.76455 -108.77607 36371 ft 493 kts 201°
2026-04-26 14:40 82.69942 -108.94647 36387 ft 492 kts 200°
2026-04-26 14:41 82.63429 -109.11377 36394 ft 492 kts 200°
2026-04-26 14:41 82.56916 -109.27798 36398 ft 492 kts 200°
2026-04-26 14:42 82.50426 -109.43864 36407 ft 492 kts 200°
2026-04-26 14:42 82.43895 -109.59742 36403 ft 492 kts 200°
2026-04-26 14:43 82.37345 -109.75380 36410 ft 492 kts 200°
2026-04-26 14:43 82.30808 -109.90707 36407 ft 492 kts 200°
2026-04-26 14:44 82.24268 -110.05775 36394 ft 492 kts 200°
2026-04-26 14:44 82.17771 -110.20483 36409 ft 491 kts 199°
2026-04-26 14:45 82.11224 -110.35048 36421 ft 491 kts 199°
2026-04-26 14:45 82.04678 -110.49364 36431 ft 491 kts 199°
2026-04-26 14:46 81.98133 -110.63436 36433 ft 490 kts 199°
2026-04-26 14:46 81.91629 -110.77185 36431 ft 490 kts 199°
2026-04-26 14:47 81.85076 -110.90807 36427 ft 491 kts 199°
2026-04-26 14:47 81.78520 -111.04210 36439 ft 490 kts 199°
2026-04-26 14:48 81.71961 -111.17400 36445 ft 491 kts 199°
2026-04-26 14:48 81.65390 -111.30400 36442 ft 491 kts 199°
2026-04-26 14:49 81.58813 -111.43200 36440 ft 491 kts 199°
2026-04-26 14:49 81.52282 -111.55709 36439 ft 490 kts 198°
2026-04-26 14:50 81.45698 -111.68118 36450 ft 490 kts 198°
2026-04-26 14:50 81.39116 -111.80330 36448 ft 490 kts 198°
2026-04-26 14:51 81.32538 -111.92343 36450 ft 490 kts 198°
2026-04-26 14:51 81.25994 -112.04109 36455 ft 490 kts 198°
2026-04-26 14:52 81.19408 -112.15768 36466 ft 490 kts 198°
2026-04-26 14:52 81.12823 -112.27249 36470 ft 490 kts 198°
2026-04-26 14:53 81.06232 -112.38567 36468 ft 490 kts 198°
2026-04-26 14:53 80.99635 -112.49724 36469 ft 490 kts 198°
2026-04-26 14:54 80.93034 -112.60720 36461 ft 490 kts 197°
2026-04-26 14:54 80.86476 -112.71484 36466 ft 490 kts 197°
2026-04-26 14:55 80.79869 -112.82171 36475 ft 490 kts 197°
2026-04-26 14:55 80.73261 -112.92703 36483 ft 490 kts 197°
2026-04-26 14:56 80.66636 -113.03108 36479 ft 490 kts 197°
2026-04-26 14:56 80.60013 -113.13361 36486 ft 490 kts 197°
2026-04-26 14:57 80.53426 -113.23412 36481 ft 491 kts 197°
2026-04-26 14:57 80.46791 -113.33395 36471 ft 490 kts 197°
2026-04-26 14:58 80.40160 -113.43228 36477 ft 490 kts 197°
2026-04-26 14:58 80.33547 -113.52900 36480 ft 489 kts 196°
2026-04-26 14:59 80.26961 -113.62402 36489 ft 489 kts 196°
2026-04-26 14:59 80.20339 -113.71825 36494 ft 489 kts 196°
2026-04-26 15:00 80.13723 -113.81112 36491 ft 489 kts 196°
2026-04-26 15:00 80.07104 -113.90292 36479 ft 489 kts 196°
2026-04-26 15:01 80.00494 -113.99419 36494 ft 488 kts 198°
2026-04-26 15:01 79.95182 -114.09941 36511 ft 484 kts 204°
2026-04-26 15:02 79.87838 -114.25701 36491 ft 485 kts 203°
2026-04-26 15:02 79.81482 -114.38774 36497 ft 485 kts 202°
2026-04-26 15:03 79.76203 -114.49480 36493 ft 485 kts 202°
2026-04-26 15:03 79.69847 -114.62253 36493 ft 484 kts 202°
2026-04-26 15:04 79.63488 -114.74890 36493 ft 484 kts 202°
2026-04-26 15:04 79.57172 -114.87289 36481 ft 484 kts 202°
2026-04-26 15:05 79.50798 -114.99642 36488 ft 484 kts 202°
2026-04-26 15:05 79.44476 -115.11739 36494 ft 484 kts 202°
2026-04-26 15:06 79.38110 -115.23766 36491 ft 484 kts 202°
2026-04-26 15:06 79.31750 -115.35632 36481 ft 483 kts 201°
2026-04-26 15:07 79.22199 -115.53176 36488 ft 483 kts 201°
2026-04-26 15:07 79.15838 -115.64682 36488 ft 483 kts 201°
2026-04-26 15:08 79.09513 -115.75985 36471 ft 482 kts 201°
2026-04-26 15:08 79.03139 -115.87234 36486 ft 482 kts 201°
2026-04-26 15:09 78.96771 -115.98341 36480 ft 482 kts 201°
2026-04-26 15:09 78.90386 -116.09342 36480 ft 482 kts 201°
2026-04-26 15:10 78.85082 -116.18384 36468 ft 482 kts 201°
2026-04-26 15:10 78.77680 -116.30850 36479 ft 481 kts 200°
2026-04-26 15:11 78.71305 -116.41449 36474 ft 481 kts 200°
2026-04-26 15:11 78.64937 -116.51915 36474 ft 481 kts 200°
2026-04-26 15:12 78.58562 -116.62270 36463 ft 480 kts 200°
2026-04-26 15:12 78.52186 -116.72508 36467 ft 480 kts 200°
2026-04-26 15:13 78.45815 -116.82622 36470 ft 480 kts 200°
2026-04-26 15:13 78.39479 -116.92566 36467 ft 481 kts 200°
2026-04-26 15:14 78.33085 -117.02489 36464 ft 480 kts 200°
2026-04-26 15:14 78.26695 -117.12291 36462 ft 480 kts 200°
2026-04-26 15:15 78.20308 -117.21979 36461 ft 480 kts 200°
2026-04-26 15:15 78.13956 -117.31506 36461 ft 480 kts 199°
2026-04-26 15:16 78.07563 -117.40991 36453 ft 480 kts 199°
2026-04-26 15:16 78.01172 -117.50368 36460 ft 480 kts 199°
2026-04-26 15:17 77.95848 -117.58102 36450 ft 480 kts 199°
2026-04-26 15:17 77.88364 -117.68855 36448 ft 480 kts 199°
2026-04-26 15:18 77.81989 -117.77911 36443 ft 480 kts 199°
2026-04-26 15:18 77.75586 -117.86903 36444 ft 480 kts 199°
2026-04-26 15:19 77.69179 -117.95804 36438 ft 479 kts 199°
2026-04-26 15:19 77.62776 -118.04607 36425 ft 479 kts 199°
2026-04-26 15:20 77.56416 -118.13260 36432 ft 479 kts 199°
2026-04-26 15:20 77.50005 -118.21892 36430 ft 479 kts 199°
2026-04-26 15:21 77.43592 -118.30434 36423 ft 479 kts 199°
2026-04-26 15:21 77.37221 -118.38832 36432 ft 479 kts 198°
2026-04-26 15:22 77.30804 -118.47204 36412 ft 479 kts 198°
2026-04-26 15:22 77.24392 -118.55482 36411 ft 479 kts 198°
2026-04-26 15:23 77.18016 -118.63630 36422 ft 478 kts 198°
2026-04-26 15:23 77.11603 -118.71743 36397 ft 478 kts 198°
2026-04-26 15:24 77.05179 -118.79788 36401 ft 478 kts 198°
2026-04-26 15:24 76.98765 -118.87740 36411 ft 478 kts 198°
2026-04-26 15:25 76.93430 -118.94293 36402 ft 478 kts 198°
2026-04-26 15:25 76.85963 -119.03374 36401 ft 479 kts 198°
2026-04-26 15:26 76.79532 -119.11109 36402 ft 478 kts 198°
2026-04-26 15:26 76.73121 -119.18746 36387 ft 478 kts 198°
2026-04-26 15:27 76.66695 -119.26324 36388 ft 478 kts 198°
2026-04-26 15:27 76.60276 -119.33823 36386 ft 477 kts 198°
2026-04-26 15:28 76.53858 -119.41245 36386 ft 477 kts 198°
2026-04-26 15:28 76.47486 -119.48545 36386 ft 477 kts 198°
2026-04-26 15:29 76.41065 -119.55829 36386 ft 477 kts 198°
2026-04-26 15:30 76.28218 -119.70197 36379 ft 476 kts 197°
2026-04-26 15:30 76.21801 -119.77271 36379 ft 476 kts 197°
2026-04-26 15:31 76.12237 -119.87692 36363 ft 475 kts 197°
2026-04-26 15:32 76.03714 -119.96858 36372 ft 475 kts 197°
2026-04-26 15:32 75.96233 -120.04811 36384 ft 475 kts 197°
2026-04-26 15:33 75.89836 -120.11545 36362 ft 475 kts 197°
2026-04-26 15:33 75.83423 -120.18230 36363 ft 475 kts 197°
2026-04-26 15:34 75.77051 -120.24813 36366 ft 475 kts 197°
2026-04-26 15:34 75.70646 -120.31372 36358 ft 475 kts 197°
2026-04-26 15:35 75.64229 -120.37883 36350 ft 474 kts 197°
2026-04-26 15:35 75.57824 -120.44325 36356 ft 474 kts 197°
2026-04-26 15:36 75.51419 -120.50709 36354 ft 474 kts 197°
2026-04-26 15:36 75.45013 -120.57038 36350 ft 474 kts 197°
2026-04-26 15:37 75.38645 -120.63273 36350 ft 474 kts 197°
2026-04-26 15:37 75.32238 -120.69493 36341 ft 474 kts 196°
2026-04-26 15:38 75.25834 -120.75655 36337 ft 473 kts 196°
2026-04-26 15:38 75.19433 -120.81761 36320 ft 472 kts 196°
2026-04-26 15:39 75.13051 -120.87799 36317 ft 472 kts 196°
2026-04-26 15:39 75.07739 -120.92792 36323 ft 471 kts 196°
2026-04-26 15:40 75.00310 -120.99465 36315 ft 473 kts 193°
2026-04-26 15:40 74.93728 -121.01797 36313 ft 475 kts 186°
2026-04-26 15:41 74.87119 -121.03313 36307 ft 475 kts 186°
2026-04-26 15:41 74.80506 -121.04996 36298 ft 475 kts 187°
2026-04-26 15:42 74.73944 -121.06699 36290 ft 475 kts 187°
2026-04-26 15:42 74.67341 -121.08395 36284 ft 475 kts 187°
2026-04-26 15:43 74.60749 -121.10067 36288 ft 475 kts 187°
2026-04-26 15:44 74.50854 -121.12543 36286 ft 475 kts 186°
2026-04-26 15:44 74.40996 -121.14980 36271 ft 475 kts 186°
2026-04-26 15:45 74.31105 -121.17392 36247 ft 474 kts 187°
2026-04-26 15:46 74.21269 -121.19764 36270 ft 474 kts 187°
2026-04-26 15:46 74.16845 -121.20822 36251 ft 474 kts 186°
2026-04-26 15:47 74.04788 -121.23675 36255 ft 474 kts 186°
2026-04-26 15:48 73.98196 -121.25218 36248 ft 474 kts 186°
2026-04-26 15:48 73.91650 -121.26738 36237 ft 474 kts 186°
2026-04-26 15:49 73.85068 -121.28247 36238 ft 473 kts 187°
2026-04-26 15:49 73.78493 -121.29751 36241 ft 473 kts 187°
2026-04-26 15:50 73.71917 -121.31243 36235 ft 473 kts 187°
2026-04-26 15:50 73.66443 -121.32475 36228 ft 473 kts 187°
2026-04-26 15:51 73.59843 -121.33949 36224 ft 473 kts 187°
2026-04-26 15:51 73.53313 -121.35394 36227 ft 473 kts 186°
2026-04-26 15:52 73.46752 -121.36835 36202 ft 472 kts 187°
2026-04-26 15:52 73.40201 -121.38264 36208 ft 471 kts 187°
2026-04-26 15:53 73.33658 -121.39683 36210 ft 471 kts 187°
2026-04-26 15:53 73.27121 -121.41090 36208 ft 470 kts 187°
2026-04-26 15:54 73.20589 -121.42482 36201 ft 469 kts 187°
2026-04-26 15:54 73.14110 -121.43852 36203 ft 469 kts 187°
2026-04-26 15:55 73.07594 -121.45223 36202 ft 469 kts 187°
2026-04-26 15:55 73.01078 -121.46578 36196 ft 468 kts 187°
2026-04-26 15:56 72.94603 -121.47917 36188 ft 468 kts 187°
2026-04-26 15:56 72.88101 -121.49253 36190 ft 467 kts 187°
2026-04-26 15:57 72.81628 -121.50575 36193 ft 466 kts 187°
2026-04-26 15:57 72.75156 -121.51887 36197 ft 465 kts 187°
2026-04-26 15:58 72.68689 -121.53187 36186 ft 465 kts 187°
2026-04-26 15:58 72.62260 -121.54470 36184 ft 465 kts 187°
2026-04-26 15:59 72.55792 -121.55747 36193 ft 464 kts 187°
2026-04-26 15:59 72.49323 -121.57022 36190 ft 464 kts 187°
2026-04-26 16:00 72.42904 -121.58277 36180 ft 465 kts 187°
2026-04-26 16:00 72.36436 -121.59531 36176 ft 465 kts 187°
2026-04-26 16:01 72.29979 -121.60773 36191 ft 464 kts 187°
2026-04-26 16:01 72.23565 -121.61999 36185 ft 464 kts 187°
2026-04-26 16:02 72.17114 -121.63224 36180 ft 464 kts 187°
2026-04-26 16:02 72.10665 -121.64440 36193 ft 463 kts 187°
2026-04-26 16:03 72.04220 -121.65649 36178 ft 464 kts 187°
2026-04-26 16:03 71.97763 -121.66848 36168 ft 464 kts 187°
2026-04-26 16:04 71.91321 -121.68036 36186 ft 464 kts 187°
2026-04-26 16:04 71.84865 -121.69219 36178 ft 463 kts 187°
2026-04-26 16:05 71.78464 -121.70386 36186 ft 463 kts 187°
2026-04-26 16:05 71.72035 -121.71546 36183 ft 462 kts 186°
2026-04-26 16:06 71.65612 -121.72700 36186 ft 462 kts 186°
2026-04-26 16:06 71.59182 -121.73848 36198 ft 461 kts 186°
2026-04-26 16:07 71.52802 -121.74980 36195 ft 461 kts 186°
2026-04-26 16:07 71.46393 -121.76109 36192 ft 461 kts 186°
2026-04-26 16:08 71.39977 -121.77230 36200 ft 461 kts 186°
2026-04-26 16:08 71.33572 -121.78343 36184 ft 461 kts 187°
2026-04-26 16:09 71.27168 -121.79448 36187 ft 460 kts 187°
2026-04-26 16:09 71.20802 -121.80540 36185 ft 461 kts 187°
2026-04-26 16:10 71.14395 -121.81631 36187 ft 461 kts 186°
2026-04-26 16:10 71.07990 -121.82713 36192 ft 461 kts 186°
2026-04-26 16:11 71.01571 -121.83793 36175 ft 461 kts 186°
2026-04-26 16:11 70.95199 -121.84858 36167 ft 461 kts 186°
2026-04-26 16:12 70.88807 -121.85918 36162 ft 459 kts 186°
2026-04-26 16:12 70.79224 -121.87496 36168 ft 460 kts 186°
2026-04-26 16:13 70.72834 -121.88540 36176 ft 460 kts 186°
2026-04-26 16:13 70.66430 -121.89580 36166 ft 461 kts 186°
2026-04-26 16:14 70.60023 -121.90613 36170 ft 460 kts 186°
2026-04-26 16:15 70.50465 -121.92141 36148 ft 460 kts 186°
2026-04-26 16:15 70.44071 -121.93156 36163 ft 460 kts 186°
2026-04-26 16:16 70.34479 -121.94668 36167 ft 460 kts 186°
2026-04-26 16:16 70.28082 -121.95668 36169 ft 460 kts 186°
2026-04-26 16:17 70.21680 -121.96664 36165 ft 461 kts 186°
2026-04-26 16:17 70.15304 -121.97649 36167 ft 461 kts 186°
2026-04-26 16:18 70.05662 -121.99132 36163 ft 462 kts 186°
2026-04-26 16:19 69.96030 -122.00775 36147 ft 464 kts 187°
2026-04-26 16:20 69.86377 -122.03236 36167 ft 463 kts 188°
2026-04-26 16:20 69.76728 -122.05671 36169 ft 463 kts 188°
2026-04-26 16:21 69.70304 -122.07229 36142 ft 463 kts 187°
2026-04-26 16:21 69.63874 -122.08771 36166 ft 464 kts 187°
2026-04-26 16:22 69.57472 -122.10294 36182 ft 465 kts 187°
2026-04-26 16:22 69.51017 -122.11824 36183 ft 466 kts 187°
2026-04-26 16:23 69.44537 -122.13350 36194 ft 466 kts 187°
2026-04-26 16:23 69.38063 -122.14867 36202 ft 466 kts 187°
2026-04-26 16:24 69.31628 -122.16364 36201 ft 466 kts 187°
2026-04-26 16:24 69.25164 -122.17860 36209 ft 465 kts 187°
2026-04-26 16:25 69.18701 -122.19348 36206 ft 466 kts 187°
2026-04-26 16:25 69.12229 -122.20828 36229 ft 466 kts 187°
2026-04-26 16:26 69.06853 -122.22049 36225 ft 467 kts 187°
2026-04-26 16:26 68.99310 -122.23756 36222 ft 467 kts 187°
2026-04-26 16:27 68.92796 -122.25221 36590 ft 470 kts 187°
2026-04-26 16:27 68.89539 -122.25949 36937 ft 469 kts 187°
2026-04-26 16:27 68.86270 -122.26678 37239 ft 469 kts 187°
2026-04-26 16:28 68.83003 -122.27405 37472 ft 471 kts 187°
2026-04-26 16:28 68.79744 -122.28127 37830 ft 469 kts 187°
2026-04-26 16:28 68.76489 -122.28845 38137 ft 470 kts 187°
2026-04-26 16:28 68.73261 -122.29556 38201 ft 473 kts 187°
2026-04-26 16:29 68.66689 -122.30998 38230 ft 472 kts 187°
2026-04-26 16:29 68.60136 -122.32425 38246 ft 469 kts 187°
2026-04-26 16:30 68.53672 -122.33828 38248 ft 467 kts 187°
2026-04-26 16:30 68.47197 -122.35225 38244 ft 466 kts 187°
2026-04-26 16:31 68.40713 -122.36614 38250 ft 467 kts 187°
2026-04-26 16:31 68.34228 -122.37998 38256 ft 468 kts 187°
2026-04-26 16:32 68.28819 -122.39146 38254 ft 469 kts 187°
2026-04-26 16:32 68.21244 -122.40743 38249 ft 470 kts 187°
2026-04-26 16:33 68.14711 -122.42113 38242 ft 471 kts 187°
2026-04-26 16:33 68.08162 -122.43477 38252 ft 472 kts 187°
2026-04-26 16:34 68.01616 -122.44832 38245 ft 472 kts 186°
2026-04-26 16:34 67.95051 -122.46184 38251 ft 472 kts 187°
2026-04-26 16:35 67.88491 -122.47528 38250 ft 472 kts 187°
2026-04-26 16:35 67.81936 -122.48863 38242 ft 472 kts 187°
2026-04-26 16:36 67.75427 -122.50181 38248 ft 472 kts 186°
2026-04-26 16:36 67.68887 -122.51498 38249 ft 471 kts 186°
2026-04-26 16:37 67.63455 -122.52587 38234 ft 471 kts 186°
2026-04-26 16:37 67.56921 -122.53889 38239 ft 470 kts 186°
2026-04-26 16:38 67.50402 -122.55181 38243 ft 469 kts 186°
2026-04-26 16:38 67.43887 -122.56466 38247 ft 469 kts 186°
2026-04-26 16:39 67.37371 -122.57744 38236 ft 469 kts 186°
2026-04-26 16:39 67.30892 -122.59008 38246 ft 470 kts 186°
2026-04-26 16:40 67.24374 -122.60273 38226 ft 470 kts 187°
2026-04-26 16:40 67.17849 -122.61533 38222 ft 470 kts 186°
2026-04-26 16:41 67.11332 -122.62783 38239 ft 470 kts 186°
2026-04-26 16:41 67.04806 -122.64027 38236 ft 470 kts 186°
2026-04-26 16:42 66.98277 -122.65266 38246 ft 470 kts 186°
2026-04-26 16:42 66.91737 -122.66501 38231 ft 471 kts 186°
2026-04-26 16:43 66.85242 -122.67721 38231 ft 471 kts 186°
2026-04-26 16:43 66.78696 -122.68943 38236 ft 471 kts 186°
2026-04-26 16:44 66.72152 -122.70160 38224 ft 471 kts 186°
2026-04-26 16:44 66.65651 -122.71361 38229 ft 471 kts 186°
2026-04-26 16:45 66.59097 -122.72566 38231 ft 471 kts 186°
2026-04-26 16:45 66.52557 -122.73764 38219 ft 471 kts 186°
2026-04-26 16:46 66.46014 -122.74954 38222 ft 471 kts 186°
2026-04-26 16:46 66.39477 -122.76133 38218 ft 470 kts 186°
2026-04-26 16:47 66.32990 -122.77301 38221 ft 469 kts 186°
2026-04-26 16:47 66.26455 -122.78474 38219 ft 469 kts 186°
2026-04-26 16:48 66.19940 -122.79637 38219 ft 469 kts 186°
2026-04-26 16:48 66.13435 -122.80796 38221 ft 469 kts 187°
2026-04-26 16:49 66.06966 -122.81933 38215 ft 469 kts 186°
2026-04-26 16:49 66.00463 -122.83071 38212 ft 468 kts 187°
2026-04-26 16:50 65.93954 -122.84212 38219 ft 467 kts 186°
2026-04-26 16:50 65.87467 -122.85342 38221 ft 467 kts 187°
2026-04-26 16:51 65.81014 -122.86456 38224 ft 467 kts 187°
2026-04-26 16:51 65.74534 -122.87559 38220 ft 467 kts 186°
2026-04-26 16:52 65.69148 -122.88476 38233 ft 466 kts 187°
2026-04-26 16:52 65.61568 -122.89777 38220 ft 467 kts 186°
2026-04-26 16:53 65.55077 -122.90871 38241 ft 467 kts 186°
2026-04-26 16:53 65.48619 -122.91961 38232 ft 468 kts 186°
2026-04-26 16:54 65.42114 -122.93055 38210 ft 468 kts 186°
2026-04-26 16:54 65.35602 -122.94142 38215 ft 468 kts 186°
2026-04-26 16:55 65.29082 -122.95222 38216 ft 469 kts 186°
2026-04-26 16:55 65.22614 -122.96292 38209 ft 468 kts 187°
2026-04-26 16:56 65.12866 -122.97898 38209 ft 467 kts 186°
2026-04-26 16:57 65.06389 -122.98954 38212 ft 466 kts 187°
2026-04-26 16:57 64.96692 -123.00633 38197 ft 465 kts 187°
2026-04-26 16:58 64.91344 -123.01890 38206 ft 464 kts 189°
2026-04-26 16:59 64.80637 -123.04522 38186 ft 465 kts 188°
2026-04-26 17:00 64.67723 -123.07545 38197 ft 467 kts 188°
2026-04-26 17:00 64.58056 -123.09773 38194 ft 468 kts 188°
2026-04-26 17:01 64.51563 -123.11259 38191 ft 468 kts 187°
2026-04-26 17:01 64.45065 -123.12742 38182 ft 468 kts 188°
2026-04-26 17:02 64.38586 -123.14209 38183 ft 467 kts 187°
2026-04-26 17:02 64.32119 -123.15664 38182 ft 467 kts 188°
2026-04-26 17:03 64.25657 -123.17113 38185 ft 466 kts 188°
2026-04-26 17:03 64.19244 -123.18568 38183 ft 466 kts 188°
2026-04-26 17:04 64.12792 -123.20009 38195 ft 466 kts 188°
2026-04-26 17:04 64.06338 -123.21435 38199 ft 466 kts 188°
2026-04-26 17:05 63.99875 -123.22859 38197 ft 466 kts 187°
2026-04-26 17:05 63.93407 -123.24281 38195 ft 467 kts 187°
2026-04-26 17:06 63.86980 -123.25687 38197 ft 467 kts 187°
2026-04-26 17:06 63.80490 -123.27103 38198 ft 467 kts 187°
2026-04-26 17:07 63.74020 -123.28507 38193 ft 468 kts 187°
2026-04-26 17:07 63.67538 -123.29901 38187 ft 468 kts 187°
2026-04-26 17:08 63.61053 -123.31292 38180 ft 467 kts 187°
2026-04-26 17:08 63.54580 -123.32681 38183 ft 467 kts 187°
2026-04-26 17:09 63.49198 -123.33824 38203 ft 467 kts 187°
2026-04-26 17:09 63.41671 -123.35415 38184 ft 467 kts 187°
2026-04-26 17:10 63.35200 -123.36776 38199 ft 466 kts 187°
2026-04-26 17:10 63.28726 -123.38137 38181 ft 466 kts 187°
2026-04-26 17:11 63.22267 -123.39490 38167 ft 466 kts 187°
2026-04-26 17:11 63.15793 -123.40838 38193 ft 467 kts 187°
2026-04-26 17:12 63.06111 -123.42841 38207 ft 468 kts 187°
2026-04-26 17:13 62.96370 -123.44843 38188 ft 468 kts 187°
2026-04-26 17:14 62.96315 -123.44854 38188 ft 468 kts 187°
2026-04-26 17:14 62.91472 -123.45845 38195 ft 468 kts 187°
2026-04-26 17:15 62.81730 -123.47825 38189 ft 468 kts 187°
2026-04-26 17:16 62.75280 -123.49133 38198 ft 468 kts 187°
2026-04-26 17:16 62.68786 -123.50442 38192 ft 469 kts 187°
2026-04-26 17:17 62.62293 -123.51743 38180 ft 469 kts 187°
2026-04-26 17:17 62.55791 -123.53041 38189 ft 468 kts 187°
2026-04-26 17:18 62.49299 -123.54334 38176 ft 468 kts 186°
2026-04-26 17:18 62.42806 -123.55613 38190 ft 468 kts 186°
2026-04-26 17:19 62.33105 -123.57526 38180 ft 469 kts 186°
2026-04-26 17:19 62.26590 -123.58803 38161 ft 470 kts 186°
2026-04-26 17:20 62.22230 -123.59652 38177 ft 470 kts 186°
2026-04-26 17:20 62.13529 -123.61343 38171 ft 471 kts 186°
2026-04-26 17:21 62.06988 -123.62607 38164 ft 472 kts 186°
2026-04-26 17:21 62.00488 -123.63856 38157 ft 472 kts 186°
2026-04-26 17:22 61.93931 -123.65113 38164 ft 472 kts 186°
2026-04-26 17:22 61.87375 -123.66364 38139 ft 472 kts 186°
2026-04-26 17:23 61.81934 -123.67398 38146 ft 472 kts 186°
2026-04-26 17:23 61.74274 -123.68847 38137 ft 472 kts 186°
2026-04-26 17:24 61.68836 -123.69872 38138 ft 472 kts 187°
2026-04-26 17:24 61.62285 -123.71101 38138 ft 472 kts 186°
2026-04-26 17:25 61.55732 -123.72323 38142 ft 472 kts 186°
2026-04-26 17:25 61.49179 -123.73544 38138 ft 473 kts 186°
2026-04-26 17:26 61.42672 -123.74751 38139 ft 473 kts 186°
2026-04-26 17:26 61.36116 -123.75962 38149 ft 473 kts 186°
2026-04-26 17:27 61.29540 -123.77171 38151 ft 474 kts 186°
2026-04-26 17:27 61.22958 -123.78376 38159 ft 474 kts 186°
2026-04-26 17:28 61.16415 -123.79568 38159 ft 475 kts 186°
2026-04-26 17:28 61.09831 -123.80762 38161 ft 475 kts 186°
2026-04-26 17:29 61.04351 -123.81752 38149 ft 475 kts 186°
2026-04-26 17:29 60.96640 -123.83141 38154 ft 475 kts 186°
2026-04-26 17:30 60.90084 -123.84316 38154 ft 475 kts 186°
2026-04-26 17:30 60.83496 -123.85492 38157 ft 475 kts 186°
2026-04-26 17:31 60.76897 -123.86665 38167 ft 476 kts 186°
2026-04-26 17:31 60.70284 -123.87836 38159 ft 476 kts 186°
2026-04-26 17:32 60.63676 -123.89002 38157 ft 476 kts 186°
2026-04-26 17:32 60.57061 -123.90163 38170 ft 477 kts 186°
2026-04-26 17:33 60.50449 -123.91318 38164 ft 477 kts 186°
2026-04-26 17:34 60.40550 -123.93041 38162 ft 478 kts 186°
2026-04-26 17:34 60.33923 -123.94188 38174 ft 478 kts 186°
2026-04-26 17:35 60.27286 -123.95333 38174 ft 478 kts 186°
2026-04-26 17:35 60.20687 -123.96467 38186 ft 478 kts 186°
2026-04-26 17:36 60.14059 -123.97602 38181 ft 477 kts 186°
2026-04-26 17:36 60.07473 -123.98726 38176 ft 477 kts 186°
2026-04-26 17:37 60.00864 -123.99846 38185 ft 476 kts 185°
2026-04-26 17:37 59.94240 -124.00102 38184 ft 476 kts 181°
2026-04-26 17:38 59.84283 -124.00004 38188 ft 477 kts 180°
2026-04-26 17:38 59.77640 -123.99979 38193 ft 477 kts 181°
2026-04-26 17:39 59.71034 -123.99976 38191 ft 478 kts 181°
2026-04-26 17:39 59.64374 -123.99979 38191 ft 479 kts 181°
2026-04-26 17:40 59.58788 -123.99981 38188 ft 479 kts 181°
2026-04-26 17:40 59.51019 -123.99981 38183 ft 481 kts 181°
2026-04-26 17:41 59.44290 -123.99984 38190 ft 484 kts 181°
2026-04-26 17:41 59.37543 -123.99983 38187 ft 485 kts 181°
2026-04-26 17:42 59.30779 -123.99981 38184 ft 486 kts 181°
2026-04-26 17:42 59.24047 -123.99981 38188 ft 487 kts 180°
2026-04-26 17:43 59.17258 -123.99983 38167 ft 487 kts 181°
2026-04-26 17:43 59.10481 -123.99984 38184 ft 487 kts 181°
2026-04-26 17:44 59.03691 -123.99984 38183 ft 487 kts 181°
2026-04-26 17:44 58.96956 -123.99983 38177 ft 487 kts 181°
2026-04-26 17:45 58.90175 -123.99980 38173 ft 487 kts 180°
2026-04-26 17:45 58.83392 -123.99981 38184 ft 487 kts 180°
2026-04-26 17:46 58.76622 -123.99982 38153 ft 487 kts 180°
2026-04-26 17:46 58.69839 -123.99982 38145 ft 487 kts 180°
2026-04-26 17:47 58.64203 -123.99984 38157 ft 486 kts 181°
2026-04-26 17:47 58.56292 -123.99983 38145 ft 486 kts 180°
2026-04-26 17:48 58.49553 -123.99984 38136 ft 487 kts 180°
2026-04-26 17:48 58.42754 -123.99983 38140 ft 488 kts 180°
2026-04-26 17:49 58.35946 -123.99982 38122 ft 489 kts 180°
2026-04-26 17:49 58.29131 -123.99982 38129 ft 489 kts 180°
2026-04-26 17:50 58.22323 -123.99983 38127 ft 489 kts 180°
2026-04-26 17:50 58.15546 -123.99983 38120 ft 490 kts 180°
2026-04-26 17:51 58.08710 -123.99984 38127 ft 490 kts 180°
2026-04-26 17:51 58.01866 -123.99984 38130 ft 491 kts 180°
2026-04-26 17:52 57.95028 -123.99983 38117 ft 491 kts 180°
2026-04-26 17:52 57.88194 -123.99983 38126 ft 491 kts 180°
2026-04-26 17:53 57.81391 -123.99983 38127 ft 492 kts 180°
2026-04-26 17:54 57.71101 -123.99984 38107 ft 493 kts 180°
2026-04-26 17:54 57.64225 -123.99983 38121 ft 493 kts 180°
2026-04-26 17:55 57.57356 -123.99984 38125 ft 493 kts 180°
2026-04-26 17:55 57.50527 -123.99982 38110 ft 493 kts 180°
2026-04-26 17:56 57.43656 -123.99984 38122 ft 494 kts 180°
2026-04-26 17:57 57.29878 -123.99984 38114 ft 495 kts 180°
2026-04-26 17:57 57.22976 -123.99985 38125 ft 495 kts 180°
2026-04-26 17:58 57.09161 -123.99984 38101 ft 497 kts 180°
2026-04-26 17:59 56.98817 -123.99984 38087 ft 497 kts 180°
2026-04-26 17:59 56.91891 -123.99984 38075 ft 497 kts 180°
2026-04-26 18:00 56.84974 -123.99986 38089 ft 497 kts 180°
2026-04-26 18:00 56.78052 -123.99985 38084 ft 497 kts 180°
2026-04-26 18:01 56.71137 -123.99985 38081 ft 496 kts 180°
2026-04-26 18:01 56.64271 -123.99985 38064 ft 495 kts 180°
2026-04-26 18:02 56.59662 -123.99985 38091 ft 494 kts 180°
2026-04-26 18:02 56.50490 -123.99985 38075 ft 495 kts 180°
2026-04-26 18:03 56.43582 -123.99984 38069 ft 496 kts 180°
2026-04-26 18:03 56.36722 -123.99985 38075 ft 496 kts 180°
2026-04-26 18:04 56.29803 -123.99985 38073 ft 497 kts 180°
2026-04-26 18:05 56.19407 -123.99986 38078 ft 498 kts 180°
2026-04-26 18:05 56.12524 -123.99986 38068 ft 498 kts 180°
2026-04-26 18:06 56.05569 -123.99986 38077 ft 498 kts 180°
2026-04-26 18:06 55.98630 -123.99986 38070 ft 498 kts 180°
2026-04-26 18:07 55.91725 -123.99986 38081 ft 499 kts 180°
2026-04-26 18:07 55.84768 -123.99987 38073 ft 501 kts 180°
2026-04-26 18:08 55.77781 -123.99987 38072 ft 501 kts 180°
2026-04-26 18:08 55.70802 -123.99988 38090 ft 501 kts 180°
2026-04-26 18:09 55.63818 -123.99987 38087 ft 501 kts 180°
2026-04-26 18:09 55.56875 -123.99987 38097 ft 501 kts 180°
2026-04-26 18:10 55.49892 -123.99987 38082 ft 502 kts 180°
2026-04-26 18:10 55.42912 -123.99989 38084 ft 501 kts 180°
2026-04-26 18:11 55.35935 -123.99989 38093 ft 501 kts 180°
2026-04-26 18:11 55.30135 -123.99989 38092 ft 501 kts 180°
2026-04-26 18:12 55.23155 -123.99990 38092 ft 501 kts 180°
2026-04-26 18:12 55.16166 -123.99992 38100 ft 502 kts 180°
2026-04-26 18:13 55.09170 -123.99994 38094 ft 502 kts 180°
2026-04-26 18:13 55.02222 -123.99996 38110 ft 502 kts 180°
2026-04-26 18:14 54.95242 -123.99345 38099 ft 503 kts 174°
2026-04-26 18:14 54.88258 -123.98132 38097 ft 504 kts 174°
2026-04-26 18:15 54.81257 -123.96929 38095 ft 506 kts 174°
2026-04-26 18:15 54.74238 -123.95768 38096 ft 507 kts 174°
2026-04-26 18:16 54.67249 -123.94637 38097 ft 509 kts 174°
2026-04-26 18:16 54.56627 -123.92929 38097 ft 511 kts 174°
2026-04-26 18:17 54.49575 -123.91796 38099 ft 512 kts 174°
2026-04-26 18:17 54.42475 -123.90660 38108 ft 512 kts 174°
2026-04-26 18:18 54.35366 -123.89525 38078 ft 513 kts 174°
2026-04-26 18:18 54.28251 -123.88394 38085 ft 513 kts 174°
2026-04-26 18:19 54.21152 -123.87269 38088 ft 512 kts 174°
2026-04-26 18:19 54.14056 -123.86148 38097 ft 511 kts 174°
2026-04-26 18:20 54.06965 -123.85032 38076 ft 512 kts 174°
2026-04-26 18:20 54.01069 -123.84108 38085 ft 512 kts 174°
2026-04-26 18:21 53.92766 -123.82809 38084 ft 512 kts 174°
2026-04-26 18:21 53.85699 -123.81708 38080 ft 513 kts 174°
2026-04-26 18:22 53.78586 -123.80604 38074 ft 512 kts 174°
2026-04-26 18:22 53.71482 -123.79506 38075 ft 512 kts 174°
2026-04-26 18:23 53.64392 -123.78412 38069 ft 511 kts 174°
2026-04-26 18:23 53.57308 -123.77324 38090 ft 510 kts 174°
2026-04-26 18:24 53.50252 -123.76243 38076 ft 511 kts 174°
2026-04-26 18:24 53.43149 -123.75159 38071 ft 513 kts 174°
2026-04-26 18:25 53.36031 -123.74076 38064 ft 513 kts 174°
2026-04-26 18:25 53.28916 -123.72998 38080 ft 513 kts 174°
2026-04-26 18:26 53.21830 -123.71927 38061 ft 514 kts 174°
2026-04-26 18:26 53.14695 -123.70852 38059 ft 515 kts 174°
2026-04-26 18:27 53.07550 -123.69780 38053 ft 515 kts 174°
2026-04-26 18:27 53.00406 -123.68711 38070 ft 516 kts 174°
2026-04-26 18:28 52.93280 -123.67648 38043 ft 517 kts 174°
2026-04-26 18:28 52.86097 -123.66581 38047 ft 518 kts 174°
2026-04-26 18:29 52.78886 -123.65513 38031 ft 518 kts 174°
2026-04-26 18:29 52.71749 -123.64459 38057 ft 518 kts 174°
2026-04-26 18:30 52.64542 -123.63399 38040 ft 520 kts 174°
2026-04-26 18:30 52.57320 -123.62339 38038 ft 521 kts 174°
2026-04-26 18:31 52.50078 -123.61281 38023 ft 522 kts 174°
2026-04-26 18:31 52.42823 -123.60225 38033 ft 524 kts 174°
2026-04-26 18:32 52.35602 -123.59176 37985 ft 525 kts 174°
2026-04-26 18:32 52.28327 -123.58123 38007 ft 524 kts 174°
2026-04-26 18:33 52.21059 -123.57074 38013 ft 524 kts 174°
2026-04-26 18:33 52.13790 -123.56030 38009 ft 523 kts 174°
2026-04-26 18:34 52.06537 -123.54990 38009 ft 523 kts 174°
2026-04-26 18:34 51.99335 -123.53961 38006 ft 523 kts 174°
2026-04-26 18:35 51.92084 -123.52928 38009 ft 522 kts 174°
2026-04-26 18:35 51.84840 -123.51903 37994 ft 522 kts 174°
2026-04-26 18:36 51.77600 -123.50879 38012 ft 521 kts 174°
2026-04-26 18:36 51.70363 -123.49856 38015 ft 521 kts 174°
2026-04-26 18:37 51.63137 -123.48840 38035 ft 521 kts 174°
2026-04-26 18:37 51.55908 -123.47827 38026 ft 521 kts 174°
2026-04-26 18:38 51.48714 -123.46822 38022 ft 521 kts 174°
2026-04-26 18:38 51.41479 -123.45815 38024 ft 521 kts 174°
2026-04-26 18:39 51.34251 -123.44815 38042 ft 521 kts 174°
2026-04-26 18:39 51.27023 -123.43814 38033 ft 521 kts 174°
2026-04-26 18:40 51.19787 -123.42814 38047 ft 522 kts 174°
2026-04-26 18:40 51.12574 -123.41822 38013 ft 522 kts 174°
2026-04-26 18:41 51.05340 -123.40833 38011 ft 522 kts 174°
2026-04-26 18:41 50.98115 -123.39843 38040 ft 521 kts 174°
2026-04-26 18:42 50.90876 -123.38860 38011 ft 520 kts 174°
2026-04-26 18:42 50.83662 -123.37886 38037 ft 520 kts 174°
2026-04-26 18:43 50.76477 -123.36907 37992 ft 522 kts 174°
2026-04-26 18:43 50.69222 -123.35927 37986 ft 524 kts 174°
2026-04-26 18:44 50.61939 -123.34952 37964 ft 526 kts 174°
2026-04-26 18:44 50.54638 -123.33970 37960 ft 528 kts 174°
2026-04-26 18:45 50.47311 -123.32986 37913 ft 528 kts 174°
2026-04-26 18:45 50.40000 -123.32014 37933 ft 527 kts 174°
2026-04-26 18:46 50.32694 -123.31049 37933 ft 525 kts 174°
2026-04-26 18:46 50.25423 -123.30093 37909 ft 526 kts 174°
2026-04-26 18:47 50.18116 -123.29112 37905 ft 526 kts 174°
2026-04-26 18:47 50.10859 -123.28158 37900 ft 526 kts 174°
2026-04-26 18:48 50.03564 -123.27205 37921 ft 527 kts 174°
2026-04-26 18:48 49.96238 -123.26249 37886 ft 528 kts 174°
2026-04-26 18:49 49.88899 -123.25291 37872 ft 528 kts 173°
2026-04-26 18:49 49.81612 -123.24340 37893 ft 528 kts 174°
2026-04-26 18:50 49.74263 -123.23385 37904 ft 529 kts 174°
2026-04-26 18:50 49.66910 -123.22432 37852 ft 529 kts 174°
2026-04-26 18:51 49.59639 -123.21490 37875 ft 528 kts 174°
2026-04-26 18:51 49.52296 -123.20551 37905 ft 529 kts 173°
2026-04-26 18:52 49.46192 -123.19773 37890 ft 529 kts 173°
2026-04-26 18:52 49.37626 -123.18691 37874 ft 531 kts 173°
2026-04-26 18:53 49.30268 -123.17754 37886 ft 530 kts 173°
2026-04-26 18:53 49.22919 -123.16818 37898 ft 529 kts 173°
2026-04-26 18:54 49.15585 -123.15891 37905 ft 527 kts 173°
2026-04-26 18:54 49.08275 -123.14952 37911 ft 525 kts 172°
2026-04-26 18:55 49.01138 -123.13100 37575 ft 526 kts 166°
2026-04-26 18:55 48.97512 -123.11985 36725 ft 531 kts 166°
2026-04-26 18:55 48.93891 -123.10877 35997 ft 530 kts 166°
2026-04-26 18:56 48.90271 -123.09789 35183 ft 531 kts 166°
2026-04-26 18:56 48.87860 -123.09074 34618 ft 534 kts 166°
2026-04-26 18:56 48.84201 -123.08003 33717 ft 539 kts 165°
2026-04-26 18:56 48.80493 -123.06924 32638 ft 545 kts 165°
2026-04-26 18:57 48.76747 -123.05840 31562 ft 549 kts 165°
2026-04-26 18:57 48.74202 -123.05104 30804 ft 552 kts 165°
2026-04-26 18:57 48.69203 -123.03662 29672 ft 549 kts 165°
2026-04-26 18:57 48.65465 -123.02584 28854 ft 544 kts 165°
2026-04-26 18:58 48.61774 -123.01518 28088 ft 537 kts 165°
2026-04-26 18:58 48.58122 -123.00465 27406 ft 530 kts 166°
2026-04-26 18:58 48.54512 -122.99424 26716 ft 524 kts 166°
2026-04-26 18:58 48.50994 -122.98411 26001 ft 519 kts 166°
2026-04-26 18:59 48.47461 -122.97394 25291 ft 515 kts 166°
2026-04-26 18:59 48.43951 -122.96386 24595 ft 510 kts 166°
2026-04-26 18:59 48.40472 -122.95388 23868 ft 506 kts 166°
2026-04-26 18:59 48.37020 -122.94400 23122 ft 502 kts 167°
2026-04-26 19:00 48.33606 -122.93424 22334 ft 496 kts 167°
2026-04-26 19:00 48.30244 -122.92465 21642 ft 488 kts 167°
2026-04-26 19:00 48.26930 -122.91522 20968 ft 481 kts 167°
2026-04-26 19:00 48.23667 -122.90593 20270 ft 474 kts 167°
2026-04-26 19:01 48.20455 -122.89680 19648 ft 467 kts 168°
2026-04-26 19:01 48.17287 -122.88781 19013 ft 460 kts 168°
2026-04-26 19:01 48.14163 -122.87895 18453 ft 452 kts 168°
2026-04-26 19:01 48.11120 -122.87034 18180 ft 438 kts 168°
2026-04-26 19:02 48.08205 -122.86210 17982 ft 424 kts 168°
2026-04-26 19:02 48.05351 -122.85400 17785 ft 409 kts 167°
2026-04-26 19:02 48.02697 -122.84170 17468 ft 391 kts 149°
2026-04-26 19:02 48.01166 -122.82754 17253 ft 379 kts 143°
2026-04-26 19:03 47.98252 -122.79906 16729 ft 376 kts 145°
2026-04-26 19:03 47.96029 -122.77858 16310 ft 374 kts 146°
2026-04-26 19:03 47.93815 -122.75857 15873 ft 372 kts 147°
2026-04-26 19:03 47.91606 -122.73869 15449 ft 370 kts 147°
2026-04-26 19:04 47.89408 -122.71892 15042 ft 368 kts 147°
2026-04-26 19:04 47.87222 -122.69926 14624 ft 366 kts 147°
2026-04-26 19:04 47.85049 -122.67973 14258 ft 363 kts 147°
2026-04-26 19:04 47.82893 -122.66036 13878 ft 360 kts 147°
2026-04-26 19:05 47.78646 -122.62229 13088 ft 355 kts 148°
2026-04-26 19:05 47.76529 -122.60331 12677 ft 350 kts 148°
2026-04-26 19:05 47.74530 -122.58542 12441 ft 321 kts 148°
2026-04-26 19:06 47.72678 -122.56887 12275 ft 302 kts 148°
2026-04-26 19:06 47.70839 -122.55393 11961 ft 301 kts 153°
2026-04-26 19:06 47.68937 -122.54093 11655 ft 301 kts 155°
2026-04-26 19:06 47.67024 -122.52830 11345 ft 301 kts 155°
2026-04-26 19:07 47.65119 -122.51560 11018 ft 300 kts 155°
2026-04-26 19:07 47.63238 -122.50286 10697 ft 300 kts 155°
2026-04-26 19:07 47.61334 -122.48989 10367 ft 301 kts 155°
2026-04-26 19:07 47.59436 -122.47689 10108 ft 298 kts 155°
2026-04-26 19:08 47.57569 -122.46512 9958 ft 284 kts 165°
2026-04-26 19:08 47.55633 -122.46278 9694 ft 278 kts 184°
2026-04-26 19:08 47.53674 -122.46386 9432 ft 284 kts 182°
2026-04-26 19:08 47.51687 -122.46421 9156 ft 285 kts 181°
2026-04-26 19:09 47.49743 -122.46441 8884 ft 280 kts 181°
2026-04-26 19:09 47.47817 -122.46458 8606 ft 274 kts 181°
2026-04-26 19:09 47.45927 -122.46474 8349 ft 267 kts 181°
2026-04-26 19:09 47.44085 -122.46489 8115 ft 264 kts 181°
2026-04-26 19:10 47.42238 -122.46505 7863 ft 265 kts 181°
2026-04-26 19:10 47.40388 -122.46524 7596 ft 265 kts 181°
2026-04-26 19:10 47.38565 -122.46544 7348 ft 259 kts 181°
2026-04-26 19:10 47.36780 -122.46555 7110 ft 251 kts 181°
2026-04-26 19:11 47.35075 -122.46569 7031 ft 240 kts 181°
2026-04-26 19:11 47.33418 -122.46584 6995 ft 237 kts 181°
2026-04-26 19:11 47.31770 -122.46597 6995 ft 237 kts 181°
2026-04-26 19:11 47.30112 -122.46611 7001 ft 239 kts 181°
2026-04-26 19:12 47.28431 -122.46613 6613 ft 249 kts 181°
2026-04-26 19:12 47.26708 -122.46617 6314 ft 245 kts 181°
2026-04-26 19:12 47.24999 -122.46628 5928 ft 244 kts 181°
2026-04-26 19:12 47.23330 -122.46620 5726 ft 233 kts 179°
2026-04-26 19:13 47.21757 -122.46583 5537 ft 223 kts 179°
2026-04-26 19:13 47.20249 -122.46553 5498 ft 214 kts 180°
2026-04-26 19:13 47.18748 -122.46527 5361 ft 218 kts 180°
2026-04-26 19:13 47.17261 -122.46151 5085 ft 219 kts 153°
2026-04-26 19:14 47.16175 -122.44690 4807 ft 210 kts 116°
2026-04-26 19:14 47.15757 -122.42717 4575 ft 204 kts 98°
2026-04-26 19:14 47.15511 -122.40650 4321 ft 206 kts 97°
2026-04-26 19:14 47.15361 -122.39236 4167 ft 207 kts 93°
2026-04-26 19:15 47.15725 -122.36628 3993 ft 193 kts 55°
2026-04-26 19:15 47.16687 -122.35285 3996 ft 194 kts 33°
2026-04-26 19:15 47.17807 -122.34132 3997 ft 197 kts 33°
2026-04-26 19:15 47.19028 -122.33268 3976 ft 195 kts 17°
2026-04-26 19:16 47.20329 -122.32670 3994 ft 197 kts 15°
2026-04-26 19:16 47.21668 -122.32164 3978 ft 198 kts
2026-04-26 19:16 47.23014 -122.32005 3988 ft 195 kts
2026-04-26 19:16 47.24364 -122.31970 3984 ft 192 kts 359°
2026-04-26 19:17 47.25709 -122.31957 3964 ft 196 kts 359°
2026-04-26 19:17 47.27105 -122.31944 3724 ft 203 kts 359°
2026-04-26 19:17 47.28513 -122.31934 3443 ft 198 kts
2026-04-26 19:17 47.29877 -122.31883 3226 ft 197 kts 359°
2026-04-26 19:18 47.31244 -122.31897 2923 ft 191 kts 357°
2026-04-26 19:18 47.32521 -122.31982 2706 ft 187 kts 359°
2026-04-26 19:18 47.33825 -122.31913 2437 ft 184 kts
2026-04-26 19:18 47.35065 -122.31876 2176 ft 171 kts 359°
2026-04-26 19:19 47.36210 -122.31869 1950 ft 157 kts 358°
2026-04-26 19:19 47.37251 -122.31863 1754 ft 144 kts 359°
2026-04-26 19:19 47.38238 -122.31852 1598 ft 142 kts 358°
2026-04-26 19:19 47.39241 -122.31849 1372 ft 144 kts 358°
2026-04-26 19:20 47.40245 -122.31835 1171 ft 145 kts 359°
2026-04-26 19:20 47.40916 -122.31813 1026 ft 146 kts 359°
2026-04-26 19:20 47.42272 -122.31821 746 ft 148 kts 357°
2026-04-26 19:20 47.43295 -122.31821 566 ft 149 kts 358°
2026-04-26 19:21 47.44331 -122.31802 392 ft 146 kts 358°
2026-04-26 19:21 47.45254 -122.31796 398 ft 111 kts
2026-04-26 19:21 47.45794 -122.31793 412 ft 45 kts
2026-04-26 19:21 47.46057 -122.31758 414 ft 36 kts 13°
2026-04-26 19:22 47.46103 -122.31746 412 ft 0 kts
2026-04-26 19:30 47.43856 -122.30414 388 ft 0 kts 81°